Wetterdaten: Sonntag, 05.12.2021
Datum Zeit Temp. Aussen Temp. o. S. Temp +5cm Feuchte Auss Luftdruck Regen Sonnenschein Regendauer Solar Windben Empfang
05.12.2021 00:00 4,5 C 3,3 C 1,7 C 93 % 999,3 hPa 0,0 l/m 0 min 0 min 0 W/m 19,3 km/h (3 Bft) 100,00 %
05.12.2021 00:02 4,5 C 3,3 C 1,7 C 93 % 999,3 hPa 0,0 l/m 0 min 0 min 0 W/m 29,0 km/h (5 Bft) 100,00 %
05.12.2021 00:04 4,5 C 3,3 C 1,7 C 93 % 999,3 hPa 0,0 l/m 0 min 0 min 0 W/m 22,5 km/h (4 Bft) 100,00 %
05.12.2021 00:08 4,5 C 3,3 C 1,7 C 93 % 999,3 hPa 0,0 l/m 0 min 0 min 0 W/m 19,3 km/h (3 Bft) 98,94 %
05.12.2021 00:10 4,5 C 3,3 C 1,7 C 93 % 999,4 hPa 0,0 l/m 0 min 0 min 0 W/m 16,1 km/h (3 Bft) 100,00 %
05.12.2021 00:12 4,5 C 2,8 C 1,7 C 93 % 999,4 hPa 0,0 l/m 0 min 0 min 0 W/m 16,1 km/h (3 Bft) 100,00 %
05.12.2021 00:14 4,5 C 2,8 C 1,7 C 93 % 999,4 hPa 0,0 l/m 0 min 0 min 0 W/m 19,3 km/h (3 Bft) 100,00 %
05.12.2021 00:16 4,4 C 2,8 C 1,7 C 93 % 999,4 hPa 0,0 l/m 0 min 0 min 0 W/m 16,1 km/h (3 Bft) 97,83 %
05.12.2021 00:18 4,4 C 2,8 C 1,7 C 93 % 999,4 hPa 0,0 l/m 0 min 0 min 0 W/m 12,9 km/h (3 Bft) 95,74 %
05.12.2021 00:20 4,4 C 2,8 C 1,7 C 93 % 999,4 hPa 0,0 l/m 0 min 0 min 0 W/m 16,1 km/h (3 Bft) 95,74 %
05.12.2021 00:22 4,4 C 2,8 C 1,7 C 93 % 999,4 hPa 0,0 l/m 0 min 0 min 0 W/m 22,5 km/h (4 Bft) 93,62 %
05.12.2021 00:24 4,4 C 2,8 C 1,7 C 93 % 999,4 hPa 0,0 l/m 0 min 0 min 0 W/m 22,5 km/h (4 Bft) 93,62 %
05.12.2021 00:26 4,4 C 2,8 C 1,7 C 93 % 999,4 hPa 0,0 l/m 0 min 0 min 0 W/m 16,1 km/h (3 Bft) 95,65 %
05.12.2021 00:28 4,4 C 2,8 C 1,7 C 93 % 999,4 hPa 0,0 l/m 0 min 0 min 0 W/m 19,3 km/h (3 Bft) 95,74 %
05.12.2021 00:30 4,4 C 2,8 C 1,7 C 92 % 999,4 hPa 0,0 l/m 0 min 0 min 0 W/m 19,3 km/h (3 Bft) 95,74 %
05.12.2021 00:32 4,4 C 2,8 C 1,7 C 92 % 999,3 hPa 0,0 l/m 0 min 0 min 0 W/m 19,3 km/h (3 Bft) 95,74 %
05.12.2021 00:34 4,4 C 2,8 C 1,7 C 92 % 999,3 hPa 0,0 l/m 0 min 0 min 0 W/m 12,9 km/h (3 Bft) 95,74 %
05.12.2021 00:36 4,4 C 2,8 C 1,7 C 92 % 999,4 hPa 0,0 l/m 0 min 0 min 0 W/m 22,5 km/h (4 Bft) 95,74 %
05.12.2021 00:38 4,4 C 2,8 C 1,7 C 92 % 999,4 hPa 0,0 l/m 0 min 0 min 0 W/m 16,1 km/h (3 Bft) 97,83 %
05.12.2021 00:43 4,4 C 2,8 C 1,7 C 92 % 999,3 hPa 0,0 l/m 0 min 0 min 0 W/m 19,3 km/h (3 Bft) 95,12 %
05.12.2021 00:44 4,4 C 2,8 C 1,7 C 92 % 999,3 hPa 0,0 l/m 0 min 0 min 0 W/m 22,5 km/h (4 Bft) 91,30 %
05.12.2021 00:46 4,4 C 2,8 C 1,7 C 92 % 999,3 hPa 0,0 l/m 0 min 0 min 0 W/m 16,1 km/h (3 Bft) 95,74 %
05.12.2021 00:48 4,4 C 2,8 C 1,7 C 92 % 999,3 hPa 0,0 l/m 0 min 0 min 0 W/m 19,3 km/h (3 Bft) 97,87 %
05.12.2021 00:50 4,4 C 2,8 C 1,7 C 92 % 999,3 hPa 0,0 l/m 0 min 0 min 0 W/m 16,1 km/h (3 Bft) 97,83 %
05.12.2021 00:52 4,4 C 2,8 C 1,7 C 92 % 999,3 hPa 0,0 l/m 0 min 0 min 0 W/m 19,3 km/h (3 Bft) 95,74 %
05.12.2021 00:54 4,4 C 3,3 C 1,7 C 93 % 999,3 hPa 0,0 l/m 0 min 0 min 0 W/m 16,1 km/h (3 Bft) 97,87 %
05.12.2021 00:56 4,4 C 3,3 C 1,7 C 93 % 999,3 hPa 0,0 l/m 0 min 0 min 0 W/m 22,5 km/h (4 Bft) 97,87 %
05.12.2021 00:58 4,4 C 3,3 C 1,7 C 93 % 999,3 hPa 0,0 l/m 0 min 0 min 0 W/m 12,9 km/h (3 Bft) 97,22 %
05.12.2021 01:00 4,5 C 3,3 C 1,7 C 93 % 999,3 hPa 0,0 l/m 0 min 0 min 0 W/m 19,3 km/h (3 Bft) 97,87 %
05.12.2021 01:02 4,6 C 3,3 C 1,7 C 93 % 999,4 hPa 0,0 l/m 0 min 0 min 0 W/m 19,3 km/h (3 Bft) 93,62 %
05.12.2021 01:04 4,6 C 3,3 C 1,7 C 93 % 999,4 hPa 0,0 l/m 0 min 0 min 0 W/m 22,5 km/h (4 Bft) 97,87 %
05.12.2021 01:06 4,6 C 3,3 C 1,7 C 93 % 999,3 hPa 0,0 l/m 0 min 0 min 0 W/m 16,1 km/h (3 Bft) 95,65 %
05.12.2021 01:08 4,6 C 3,3 C 1,7 C 93 % 999,3 hPa 0,0 l/m 0 min 0 min 0 W/m 22,5 km/h (4 Bft) 97,87 %
05.12.2021 01:10 4,6 C 3,3 C 1,7 C 93 % 999,3 hPa 0,0 l/m 0 min 0 min 0 W/m 16,1 km/h (3 Bft) 97,87 %
05.12.2021 01:12 4,6 C 3,3 C 1,7 C 93 % 999,3 hPa 0,0 l/m 0 min 0 min 0 W/m 16,1 km/h (3 Bft) 97,87 %
05.12.2021 01:14 4,6 C 3,3 C 1,7 C 93 % 999,3 hPa 0,0 l/m 0 min 0 min 0 W/m 12,9 km/h (3 Bft) 95,74 %
05.12.2021 01:16 4,6 C 3,3 C 1,7 C 93 % 999,2 hPa 0,0 l/m 0 min 0 min 0 W/m 16,1 km/h (3 Bft) 97,83 %
05.12.2021 01:18 4,6 C 3,3 C 1,7 C 93 % 999,3 hPa 0,0 l/m 0 min 0 min 0 W/m 22,5 km/h (4 Bft) 100,00 %
05.12.2021 01:20 4,6 C 3,3 C 1,7 C 93 % 999,3 hPa 0,0 l/m 0 min 0 min 0 W/m 25,7 km/h (4 Bft) 95,74 %
05.12.2021 01:22 4,7 C 3,3 C 1,7 C 93 % 999,3 hPa 0,0 l/m 0 min 0 min 0 W/m 16,1 km/h (3 Bft) 97,87 %
05.12.2021 01:24 4,6 C 3,3 C 1,7 C 93 % 999,3 hPa 0,0 l/m 0 min 0 min 0 W/m 16,1 km/h (3 Bft) 95,74 %
05.12.2021 01:26 4,7 C 3,3 C 1,7 C 93 % 999,4 hPa 0,0 l/m 0 min 0 min 0 W/m 16,1 km/h (3 Bft) 97,87 %
05.12.2021 01:28 4,7 C 3,3 C 1,7 C 93 % 999,4 hPa 0,0 l/m 0 min 0 min 0 W/m 16,1 km/h (3 Bft) 97,83 %
05.12.2021 01:30 4,7 C 3,3 C 1,7 C 93 % 999,3 hPa 0,0 l/m 0 min 0 min 0 W/m 16,1 km/h (3 Bft) 100,00 %
05.12.2021 01:32 4,7 C 3,3 C 1,7 C 92 % 999,4 hPa 0,0 l/m 0 min 0 min 0 W/m 9,7 km/h (2 Bft) 95,74 %
05.12.2021 01:34 4,7 C 3,3 C 1,7 C 93 % 999,4 hPa 0,0 l/m 0 min 0 min 0 W/m 12,9 km/h (3 Bft) 100,00 %
05.12.2021 01:36 4,7 C 3,3 C 1,7 C 92 % 999,4 hPa 0,0 l/m 0 min 0 min 0 W/m 16,1 km/h (3 Bft) 95,74 %
05.12.2021 01:38 4,7 C 3,3 C 1,7 C 93 % 999,4 hPa 0,0 l/m 0 min 0 min 0 W/m 19,3 km/h (3 Bft) 100,00 %
05.12.2021 01:40 4,7 C 3,3 C 1,7 C 93 % 999,5 hPa 0,0 l/m 0 min 0 min 0 W/m 12,9 km/h (3 Bft) 97,83 %
05.12.2021 01:42 4,6 C 3,3 C 1,7 C 93 % 999,5 hPa 0,0 l/m 0 min 0 min 0 W/m 9,7 km/h (2 Bft) 95,74 %
05.12.2021 01:44 4,6 C 3,3 C 1,7 C 93 % 999,4 hPa 0,0 l/m 0 min 0 min 0 W/m 25,7 km/h (4 Bft) 95,74 %
05.12.2021 01:46 4,6 C 3,3 C 1,7 C 92 % 999,4 hPa 0,0 l/m 0 min 0 min 0 W/m 22,5 km/h (4 Bft) 97,87 %
05.12.2021 01:48 4,6 C 3,3 C 1,7 C 92 % 999,5 hPa 0,0 l/m 0 min 0 min 0 W/m 25,7 km/h (4 Bft) 97,87 %
05.12.2021 01:50 4,7 C 3,3 C 1,7 C 92 % 999,5 hPa 0,0 l/m 0 min 0 min 0 W/m 16,1 km/h (3 Bft) 97,87 %
05.12.2021 01:52 4,7 C 3,3 C 1,7 C 92 % 999,5 hPa 0,0 l/m 0 min 0 min 0 W/m 22,5 km/h (4 Bft) 97,83 %
05.12.2021 01:54 4,7 C 3,3 C 1,7 C 92 % 999,5 hPa 0,0 l/m 0 min 0 min 0 W/m 16,1 km/h (3 Bft) 100,00 %
05.12.2021 01:56 4,7 C 3,3 C 1,7 C 92 % 999,5 hPa 0,0 l/m 0 min 0 min 0 W/m 12,9 km/h (3 Bft) 97,87 %
05.12.2021 01:58 4,6 C 3,3 C 1,7 C 92 % 999,4 hPa 0,0 l/m 0 min 0 min 0 W/m 19,3 km/h (3 Bft) 100,00 %
05.12.2021 02:00 4,7 C 3,3 C 1,7 C 92 % 999,4 hPa 0,0 l/m 0 min 0 min 0 W/m 12,9 km/h (3 Bft) 100,00 %
05.12.2021 02:02 4,6 C 3,3 C 1,7 C 92 % 999,5 hPa 0,0 l/m 0 min 0 min 0 W/m 12,9 km/h (3 Bft) 97,87 %
05.12.2021 02:04 4,6 C 3,3 C 1,7 C 92 % 999,5 hPa 0,0 l/m 0 min 0 min 0 W/m 12,9 km/h (3 Bft) 100,00 %
05.12.2021 02:06 4,6 C 3,3 C 1,7 C 92 % 999,5 hPa 0,0 l/m 0 min 0 min 0 W/m 22,5 km/h (4 Bft) 95,74 %
05.12.2021 02:08 4,6 C 3,3 C 1,7 C 92 % 999,5 hPa 0,0 l/m 0 min 0 min 0 W/m 19,3 km/h (3 Bft) 95,74 %
05.12.2021 02:10 4,6 C 3,3 C 1,7 C 92 % 999,5 hPa 0,0 l/m 0 min 0 min 0 W/m 16,1 km/h (3 Bft) 97,87 %
05.12.2021 02:12 4,6 C 3,3 C 1,7 C 92 % 999,5 hPa 0,0 l/m 0 min 0 min 0 W/m 16,1 km/h (3 Bft) 97,87 %
05.12.2021 02:14 4,6 C 3,3 C 1,7 C 92 % 999,5 hPa 0,0 l/m 0 min 0 min 0 W/m 16,1 km/h (3 Bft) 97,87 %
05.12.2021 02:16 4,6 C 3,3 C 1,7 C 92 % 999,6 hPa 0,0 l/m 0 min 0 min 0 W/m 19,3 km/h (3 Bft) 95,65 %
05.12.2021 02:18 4,6 C 3,3 C 1,7 C 92 % 999,6 hPa 0,0 l/m 0 min 0 min 0 W/m 9,7 km/h (2 Bft) 97,87 %
05.12.2021 02:20 4,6 C 3,3 C 1,7 C 92 % 999,5 hPa 0,0 l/m 0 min 0 min 0 W/m 9,7 km/h (2 Bft) 97,87 %
05.12.2021 02:22 4,6 C 3,3 C 1,7 C 92 % 999,6 hPa 0,0 l/m 0 min 0 min 0 W/m 16,1 km/h (3 Bft) 95,74 %
05.12.2021 02:24 4,5 C 3,3 C 1,7 C 92 % 999,6 hPa 0,0 l/m 0 min 0 min 0 W/m 16,1 km/h (3 Bft) 97,87 %
05.12.2021 02:26 4,5 C 3,3 C 1,7 C 92 % 999,6 hPa 0,0 l/m 0 min 0 min 0 W/m 12,9 km/h (3 Bft) 97,87 %
05.12.2021 02:28 4,5 C 3,3 C 1,7 C 92 % 999,6 hPa 0,0 l/m 0 min 0 min 0 W/m 19,3 km/h (3 Bft) 97,83 %
05.12.2021 02:30 4,5 C 3,3 C 1,7 C 92 % 999,6 hPa 0,0 l/m 0 min 0 min 0 W/m 9,7 km/h (2 Bft) 97,87 %
05.12.2021 02:32 4,5 C 3,3 C 1,7 C 92 % 999,6 hPa 0,0 l/m 0 min 0 min 0 W/m 19,3 km/h (3 Bft) 97,87 %
05.12.2021 02:34 4,4 C 2,8 C 1,7 C 92 % 999,7 hPa 0,0 l/m 0 min 0 min 0 W/m 12,9 km/h (3 Bft) 100,00 %
05.12.2021 02:36 4,4 C 3,3 C 1,7 C 92 % 999,7 hPa 0,0 l/m 0 min 0 min 0 W/m 16,1 km/h (3 Bft) 97,87 %
05.12.2021 02:38 4,4 C 2,8 C 1,7 C 92 % 999,7 hPa 0,0 l/m 0 min 0 min 0 W/m 19,3 km/h (3 Bft) 97,87 %
05.12.2021 02:40 4,4 C 2,8 C 1,7 C 92 % 999,6 hPa 0,0 l/m 0 min 0 min 0 W/m 12,9 km/h (3 Bft) 100,00 %
05.12.2021 02:42 4,4 C 2,8 C 1,7 C 92 % 999,7 hPa 0,0 l/m 0 min 0 min 0 W/m 16,1 km/h (3 Bft) 100,00 %
05.12.2021 02:44 4,4 C 2,8 C 1,7 C 92 % 999,7 hPa 0,0 l/m 0 min 0 min 0 W/m 12,9 km/h (3 Bft) 100,00 %
05.12.2021 02:46 4,4 C 2,8 C 1,1 C 92 % 999,6 hPa 0,0 l/m 0 min 0 min 0 W/m 19,3 km/h (3 Bft) 100,00 %
05.12.2021 02:48 4,4 C 2,8 C 1,1 C 92 % 999,7 hPa 0,0 l/m 0 min 0 min 0 W/m 19,3 km/h (3 Bft) 97,87 %
05.12.2021 02:50 4,4 C 2,8 C 1,1 C 92 % 999,7 hPa 0,0 l/m 0 min 0 min 0 W/m 16,1 km/h (3 Bft) 100,00 %
05.12.2021 02:52 4,3 C 2,8 C 1,1 C 92 % 999,7 hPa 0,0 l/m 0 min 0 min 0 W/m 16,1 km/h (3 Bft) 97,83 %
05.12.2021 02:54 4,3 C 2,8 C 1,1 C 92 % 999,7 hPa 0,0 l/m 0 min 0 min 0 W/m 25,7 km/h (4 Bft) 97,87 %
05.12.2021 02:56 4,3 C 2,8 C 1,1 C 92 % 999,7 hPa 0,0 l/m 0 min 0 min 0 W/m 16,1 km/h (3 Bft) 97,87 %
05.12.2021 02:58 4,3 C 2,8 C 1,1 C 92 % 999,7 hPa 0,0 l/m 0 min 0 min 0 W/m 22,5 km/h (4 Bft) 100,00 %
05.12.2021 03:00 4,3 C 2,8 C 1,1 C 92 % 999,7 hPa 0,0 l/m 0 min 0 min 0 W/m 12,9 km/h (3 Bft) 100,00 %
05.12.2021 03:02 4,3 C 2,8 C 1,1 C 92 % 999,7 hPa 0,0 l/m 0 min 0 min 0 W/m 9,7 km/h (2 Bft) 100,00 %
05.12.2021 03:04 4,3 C 2,8 C 1,1 C 92 % 999,7 hPa 0,0 l/m 0 min 0 min 0 W/m 19,3 km/h (3 Bft) 100,00 %
05.12.2021 03:06 4,3 C 2,8 C 1,1 C 92 % 999,7 hPa 0,0 l/m 0 min 0 min 0 W/m 22,5 km/h (4 Bft) 100,00 %
05.12.2021 03:08 4,3 C 2,8 C 1,1 C 92 % 999,8 hPa 0,0 l/m 0 min 0 min 0 W/m 16,1 km/h (3 Bft) 97,87 %
05.12.2021 03:10 4,3 C 2,8 C 1,1 C 92 % 999,7 hPa 0,0 l/m 0 min 0 min 0 W/m 19,3 km/h (3 Bft) 100,00 %
05.12.2021 03:12 4,2 C 2,8 C 1,1 C 92 % 999,8 hPa 0,0 l/m 0 min 0 min 0 W/m 6,4 km/h (2 Bft) 100,00 %
05.12.2021 03:14 4,2 C 2,8 C 1,1 C 92 % 999,7 hPa 0,0 l/m 0 min 0 min 0 W/m 12,9 km/h (3 Bft) 100,00 %
05.12.2021 03:16 4,2 C 2,8 C 1,1 C 92 % 999,7 hPa 0,0 l/m 0 min 0 min 0 W/m 12,9 km/h (3 Bft) 100,00 %
05.12.2021 03:18 4,2 C 2,8 C 1,1 C 92 % 999,7 hPa 0,0 l/m 0 min 0 min 0 W/m 12,9 km/h (3 Bft) 100,00 %
05.12.2021 03:20 4,2 C 2,8 C 1,1 C 93 % 999,8 hPa 0,0 l/m 0 min 0 min 0 W/m 16,1 km/h (3 Bft) 100,00 %
05.12.2021 03:22 4,2 C 2,8 C 1,1 C 93 % 999,7 hPa 0,0 l/m 0 min 0 min 0 W/m 12,9 km/h (3 Bft) 97,87 %
05.12.2021 03:24 4,2 C 2,8 C 1,1 C 93 % 999,7 hPa 0,0 l/m 0 min 0 min 0 W/m 16,1 km/h (3 Bft) 97,87 %
05.12.2021 03:26 4,2 C 2,8 C 1,1 C 93 % 999,8 hPa 0,0 l/m 0 min 0 min 0 W/m 6,4 km/h (2 Bft) 100,00 %
05.12.2021 03:28 4,2 C 2,8 C 1,1 C 93 % 999,8 hPa 0,0 l/m 0 min 0 min 0 W/m 12,9 km/h (3 Bft) 100,00 %
05.12.2021 03:30 4,2 C 2,8 C 1,1 C 93 % 999,8 hPa 0,0 l/m 0 min 0 min 0 W/m 12,9 km/h (3 Bft) 100,00 %
05.12.2021 03:32 4,2 C 2,8 C 1,1 C 93 % 999,8 hPa 0,0 l/m 0 min 0 min 0 W/m 12,9 km/h (3 Bft) 97,87 %
05.12.2021 03:34 4,2 C 2,8 C 1,1 C 93 % 999,8 hPa 0,0 l/m 0 min 0 min 0 W/m 12,9 km/h (3 Bft) 95,74 %
05.12.2021 03:36 4,2 C 2,8 C 1,1 C 93 % 999,8 hPa 0,0 l/m 0 min 0 min 0 W/m 19,3 km/h (3 Bft) 95,74 %
05.12.2021 03:38 4,2 C 2,8 C 1,1 C 93 % 999,7 hPa 0,0 l/m 0 min 0 min 0 W/m 12,9 km/h (3 Bft) 93,48 %
05.12.2021 03:40 4,2 C 2,8 C 1,1 C 93 % 999,7 hPa 0,0 l/m 0 min 0 min 0 W/m 19,3 km/h (3 Bft) 95,74 %
05.12.2021 03:42 4,2 C 2,8 C 1,1 C 93 % 999,8 hPa 0,0 l/m 0 min 0 min 0 W/m 16,1 km/h (3 Bft) 95,74 %
05.12.2021 03:44 4,2 C 2,8 C 1,1 C 93 % 999,7 hPa 0,0 l/m 0 min 0 min 0 W/m 12,9 km/h (3 Bft) 95,74 %
05.12.2021 03:46 4,2 C 2,8 C 1,1 C 93 % 999,7 hPa 0,0 l/m 0 min 0 min 0 W/m 16,1 km/h (3 Bft) 95,74 %
05.12.2021 03:48 4,2 C 2,8 C 1,1 C 93 % 999,7 hPa 0,0 l/m 0 min 0 min 0 W/m 19,3 km/h (3 Bft) 95,74 %
05.12.2021 03:50 4,2 C 2,8 C 1,1 C 93 % 999,7 hPa 0,0 l/m 0 min 0 min 0 W/m 19,3 km/h (3 Bft) 93,48 %
05.12.2021 03:52 4,2 C 2,8 C 1,1 C 93 % 999,6 hPa 0,0 l/m 0 min 0 min 0 W/m 12,9 km/h (3 Bft) 95,74 %
05.12.2021 03:54 4,2 C 2,8 C 1,1 C 93 % 999,6 hPa 0,0 l/m 0 min 0 min 0 W/m 9,7 km/h (2 Bft) 95,74 %
05.12.2021 03:56 4,2 C 2,8 C 1,1 C 93 % 999,6 hPa 0,0 l/m 0 min 0 min 0 W/m 16,1 km/h (3 Bft) 93,62 %
05.12.2021 03:58 4,2 C 2,8 C 1,1 C 93 % 999,7 hPa 0,0 l/m 0 min 0 min 0 W/m 16,1 km/h (3 Bft) 95,74 %
05.12.2021 04:00 4,2 C 2,8 C 1,1 C 93 % 999,6 hPa 0,0 l/m 0 min 0 min 0 W/m 16,1 km/h (3 Bft) 94,12 %
05.12.2021 04:02 4,2 C 2,8 C 1,1 C 93 % 999,7 hPa 0,0 l/m 0 min 0 min 0 W/m 9,7 km/h (2 Bft) 100,00 %
05.12.2021 04:04 4,1 C 2,8 C 1,1 C 93 % 999,6 hPa 0,0 l/m 0 min 0 min 0 W/m 19,3 km/h (3 Bft) 91,49 %
05.12.2021 04:06 4,1 C 2,8 C 1,1 C 93 % 999,6 hPa 0,0 l/m 0 min 0 min 0 W/m 16,1 km/h (3 Bft) 95,65 %
05.12.2021 04:08 4,1 C 2,8 C 1,1 C 93 % 999,6 hPa 0,0 l/m 0 min 0 min 0 W/m 22,5 km/h (4 Bft) 97,87 %
05.12.2021 04:10 4,1 C 2,8 C 1,1 C 93 % 999,5 hPa 0,0 l/m 0 min 0 min 0 W/m 25,7 km/h (4 Bft) 93,62 %
05.12.2021 04:12 4,1 C 2,8 C 1,1 C 93 % 999,6 hPa 0,0 l/m 0 min 0 min 0 W/m 22,5 km/h (4 Bft) 91,30 %
05.12.2021 04:14 4,1 C 2,8 C 1,1 C 93 % 999,5 hPa 0,0 l/m 0 min 0 min 0 W/m 12,9 km/h (3 Bft) 93,62 %
05.12.2021 04:16 4,1 C 2,8 C 1,1 C 93 % 999,5 hPa 0,0 l/m 0 min 0 min 0 W/m 12,9 km/h (3 Bft) 91,49 %
05.12.2021 04:18 4,1 C 2,8 C 1,1 C 93 % 999,5 hPa 0,0 l/m 0 min 0 min 0 W/m 12,9 km/h (3 Bft) 95,74 %
05.12.2021 04:20 4,1 C 2,8 C 1,1 C 93 % 999,5 hPa 0,0 l/m 0 min 0 min 0 W/m 12,9 km/h (3 Bft) 95,74 %
05.12.2021 04:22 4,1 C 2,8 C 1,1 C 93 % 999,5 hPa 0,0 l/m 0 min 0 min 0 W/m 16,1 km/h (3 Bft) 95,74 %
05.12.2021 04:24 4,1 C 2,8 C 1,1 C 93 % 999,5 hPa 0,0 l/m 0 min 0 min 0 W/m 9,7 km/h (2 Bft) 93,48 %
05.12.2021 04:26 4,1 C 2,8 C 1,1 C 93 % 999,5 hPa 0,0 l/m 0 min 0 min 0 W/m 12,9 km/h (3 Bft) 97,87 %
05.12.2021 04:28 4,1 C 2,8 C 1,1 C 93 % 999,4 hPa 0,0 l/m 0 min 0 min 0 W/m 12,9 km/h (3 Bft) 95,74 %
05.12.2021 04:30 4,1 C 2,8 C 1,1 C 93 % 999,5 hPa 0,0 l/m 0 min 0 min 0 W/m 6,4 km/h (2 Bft) 97,87 %
05.12.2021 04:32 4,0 C 2,8 C 1,1 C 93 % 999,4 hPa 0,0 l/m 0 min 0 min 0 W/m 12,9 km/h (3 Bft) 97,87 %
05.12.2021 04:34 4,0 C 2,8 C 1,1 C 93 % 999,4 hPa 0,0 l/m 0 min 0 min 0 W/m 19,3 km/h (3 Bft) 100,00 %
05.12.2021 04:36 4,0 C 2,2 C 1,1 C 93 % 999,5 hPa 0,0 l/m 0 min 0 min 0 W/m 19,3 km/h (3 Bft) 95,65 %
05.12.2021 04:38 3,9 C 2,2 C 1,1 C 93 % 999,5 hPa 0,0 l/m 0 min 0 min 0 W/m 12,9 km/h (3 Bft) 100,00 %
05.12.2021 04:40 3,9 C 2,2 C 1,1 C 93 % 999,5 hPa 0,0 l/m 0 min 0 min 0 W/m 9,7 km/h (2 Bft) 97,87 %
05.12.2021 04:42 3,9 C 2,2 C 1,1 C 93 % 999,4 hPa 0,0 l/m 0 min 0 min 0 W/m 12,9 km/h (3 Bft) 100,00 %
05.12.2021 04:44 3,9 C 2,2 C 1,1 C 93 % 999,4 hPa 0,0 l/m 0 min 0 min 0 W/m 16,1 km/h (3 Bft) 100,00 %
05.12.2021 04:46 3,9 C 2,2 C 1,1 C 93 % 999,5 hPa 0,0 l/m 0 min 0 min 0 W/m 6,4 km/h (2 Bft) 97,87 %
05.12.2021 04:48 3,9 C 2,2 C 1,1 C 93 % 999,4 hPa 0,0 l/m 0 min 0 min 0 W/m 12,9 km/h (3 Bft) 100,00 %
05.12.2021 04:50 3,8 C 2,2 C 1,1 C 93 % 999,5 hPa 0,0 l/m 0 min 0 min 0 W/m 6,4 km/h (2 Bft) 100,00 %
05.12.2021 04:52 3,8 C 2,2 C 1,1 C 93 % 999,5 hPa 0,0 l/m 0 min 0 min 0 W/m 9,7 km/h (2 Bft) 100,00 %
05.12.2021 04:54 3,8 C 2,2 C 1,1 C 93 % 999,4 hPa 0,0 l/m 0 min 0 min 0 W/m 12,9 km/h (3 Bft) 97,87 %
05.12.2021 04:56 3,8 C 2,2 C 0,6 C 93 % 999,5 hPa 0,0 l/m 0 min 0 min 0 W/m 6,4 km/h (2 Bft) 100,00 %
05.12.2021 04:58 3,7 C 2,2 C 0,6 C 93 % 999,4 hPa 0,0 l/m 0 min 0 min 0 W/m 12,9 km/h (3 Bft) 100,00 %
05.12.2021 05:00 3,7 C 2,2 C 0,6 C 93 % 999,4 hPa 0,0 l/m 0 min 0 min 0 W/m 12,9 km/h (3 Bft) 100,00 %
05.12.2021 05:02 3,7 C 2,2 C 0,6 C 93 % 999,5 hPa 0,0 l/m 0 min 0 min 0 W/m 12,9 km/h (3 Bft) 100,00 %
05.12.2021 05:04 3,7 C 2,2 C 0,6 C 93 % 999,5 hPa 0,0 l/m 0 min 0 min 0 W/m 12,9 km/h (3 Bft) 100,00 %
05.12.2021 05:06 3,7 C 2,2 C 0,6 C 93 % 999,4 hPa 0,0 l/m 0 min 0 min 0 W/m 6,4 km/h (2 Bft) 100,00 %
05.12.2021 05:08 3,6 C 2,2 C 0,6 C 93 % 999,4 hPa 0,0 l/m 0 min 0 min 0 W/m 12,9 km/h (3 Bft) 100,00 %
05.12.2021 05:10 3,6 C 2,2 C 0,6 C 93 % 999,4 hPa 0,0 l/m 0 min 0 min 0 W/m 12,9 km/h (3 Bft) 100,00 %
05.12.2021 05:12 3,6 C 2,2 C 0,6 C 93 % 999,4 hPa 0,0 l/m 0 min 0 min 0 W/m 6,4 km/h (2 Bft) 100,00 %
05.12.2021 05:14 3,6 C 2,2 C 0,6 C 93 % 999,5 hPa 0,0 l/m 0 min 0 min 0 W/m 9,7 km/h (2 Bft) 100,00 %
05.12.2021 05:16 3,6 C 2,2 C 0,6 C 93 % 999,4 hPa 0,0 l/m 0 min 0 min 0 W/m 6,4 km/h (2 Bft) 100,00 %
05.12.2021 05:18 3,6 C 2,2 C 0,6 C 93 % 999,4 hPa 0,0 l/m 0 min 0 min 0 W/m 12,9 km/h (3 Bft) 97,87 %
05.12.2021 05:20 3,6 C 2,2 C 0,6 C 93 % 999,4 hPa 0,0 l/m 0 min 0 min 0 W/m 19,3 km/h (3 Bft) 100,00 %
05.12.2021 05:22 3,6 C 2,2 C 0,6 C 93 % 999,4 hPa 0,0 l/m 0 min 0 min 0 W/m 12,9 km/h (3 Bft) 100,00 %
05.12.2021 05:24 3,6 C 2,2 C 0,6 C 93 % 999,4 hPa 0,0 l/m 0 min 0 min 0 W/m 6,4 km/h (2 Bft) 100,00 %
05.12.2021 05:26 3,6 C 2,2 C 0,6 C 93 % 999,4 hPa 0,0 l/m 0 min 0 min 0 W/m 9,7 km/h (2 Bft) 100,00 %
05.12.2021 05:28 3,6 C 2,2 C 0,6 C 93 % 999,4 hPa 0,0 l/m 0 min 0 min 0 W/m 6,4 km/h (2 Bft) 100,00 %
05.12.2021 05:30 3,5 C 2,2 C 0,6 C 93 % 999,4 hPa 0,0 l/m 0 min 0 min 0 W/m 6,4 km/h (2 Bft) 100,00 %
05.12.2021 05:32 3,5 C 2,2 C 0,6 C 93 % 999,4 hPa 0,0 l/m 0 min 0 min 0 W/m 3,2 km/h (1 Bft) 100,00 %
05.12.2021 05:34 3,5 C 2,2 C 0,6 C 93 % 999,4 hPa 0,0 l/m 0 min 0 min 0 W/m 6,4 km/h (2 Bft) 100,00 %
05.12.2021 05:36 3,5 C 2,2 C 0,6 C 93 % 999,4 hPa 0,0 l/m 0 min 0 min 0 W/m 6,4 km/h (2 Bft) 100,00 %
05.12.2021 05:38 3,5 C 2,2 C 0,6 C 93 % 999,5 hPa 0,0 l/m 0 min 0 min 0 W/m 9,7 km/h (2 Bft) 100,00 %
05.12.2021 05:40 3,4 C 2,2 C 0,6 C 93 % 999,4 hPa 0,0 l/m 0 min 0 min 0 W/m 12,9 km/h (3 Bft) 100,00 %
05.12.2021 05:42 3,4 C 2,2 C 0,6 C 93 % 999,4 hPa 0,0 l/m 0 min 0 min 0 W/m 6,4 km/h (2 Bft) 97,87 %
05.12.2021 05:44 3,4 C 2,2 C 0,6 C 93 % 999,4 hPa 0,0 l/m 0 min 0 min 0 W/m 12,9 km/h (3 Bft) 100,00 %
05.12.2021 05:46 3,4 C 2,2 C 0,6 C 93 % 999,4 hPa 0,0 l/m 0 min 0 min 0 W/m 12,9 km/h (3 Bft) 97,83 %
05.12.2021 05:48 3,4 C 2,2 C 0,6 C 93 % 999,4 hPa 0,0 l/m 0 min 0 min 0 W/m 16,1 km/h (3 Bft) 100,00 %
05.12.2021 05:50 3,4 C 2,2 C 0,6 C 93 % 999,4 hPa 0,0 l/m 0 min 0 min 0 W/m 12,9 km/h (3 Bft) 97,87 %
05.12.2021 05:52 3,4 C 2,2 C 0,6 C 93 % 999,4 hPa 0,0 l/m 0 min 0 min 0 W/m 12,9 km/h (3 Bft) 95,74 %
05.12.2021 05:54 3,4 C 2,2 C 0,6 C 93 % 999,4 hPa 0,0 l/m 0 min 0 min 0 W/m 6,4 km/h (2 Bft) 97,87 %
05.12.2021 05:56 3,4 C 2,2 C 0,6 C 93 % 999,4 hPa 0,0 l/m 0 min 0 min 0 W/m 12,9 km/h (3 Bft) 97,87 %
05.12.2021 05:58 3,4 C 2,2 C 0,6 C 93 % 999,4 hPa 0,0 l/m 0 min 0 min 0 W/m 12,9 km/h (3 Bft) 95,65 %
05.12.2021 06:00 3,4 C 2,2 C 0,6 C 93 % 999,4 hPa 0,0 l/m 0 min 0 min 0 W/m 12,9 km/h (3 Bft) 95,74 %
05.12.2021 06:02 3,4 C 2,2 C 0,6 C 93 % 999,4 hPa 0,0 l/m 0 min 0 min 0 W/m 12,9 km/h (3 Bft) 93,62 %
05.12.2021 06:04 3,4 C 2,2 C 0,6 C 94 % 999,4 hPa 0,0 l/m 0 min 0 min 0 W/m 6,4 km/h (2 Bft) 93,62 %
05.12.2021 06:08 3,4 C 1,7 C 0,6 C 94 % 999,4 hPa 0,0 l/m 0 min 0 min 0 W/m 9,7 km/h (2 Bft) 96,81 %
05.12.2021 06:10 3,4 C 1,7 C 0,6 C 94 % 999,4 hPa 0,0 l/m 0 min 0 min 0 W/m 9,7 km/h (2 Bft) 95,65 %
05.12.2021 06:12 3,3 C 1,7 C 0,6 C 94 % 999,4 hPa 0,0 l/m 0 min 0 min 0 W/m 6,4 km/h (2 Bft) 95,74 %
05.12.2021 06:14 3,3 C 1,7 C 0,6 C 94 % 999,4 hPa 0,0 l/m 0 min 0 min 0 W/m 6,4 km/h (2 Bft) 95,74 %
05.12.2021 06:16 3,3 C 1,7 C 0,6 C 94 % 999,4 hPa 0,0 l/m 0 min 0 min 0 W/m 9,7 km/h (2 Bft) 95,74 %
05.12.2021 06:18 3,3 C 1,7 C 0,6 C 94 % 999,4 hPa 0,0 l/m 0 min 0 min 0 W/m 6,4 km/h (2 Bft) 95,74 %
05.12.2021 06:20 3,3 C 1,7 C 0,6 C 94 % 999,4 hPa 0,0 l/m 0 min 0 min 0 W/m 6,4 km/h (2 Bft) 93,62 %
05.12.2021 06:22 3,2 C 1,7 C 0,6 C 94 % 999,4 hPa 0,0 l/m 0 min 0 min 0 W/m 3,2 km/h (1 Bft) 95,74 %
05.12.2021 06:24 3,2 C 1,7 C 0,6 C 93 % 999,4 hPa 0,0 l/m 0 min 0 min 0 W/m 6,4 km/h (2 Bft) 97,83 %
05.12.2021 06:26 3,2 C 1,7 C 0,6 C 93 % 999,4 hPa 0,0 l/m 0 min 0 min 0 W/m 6,4 km/h (2 Bft) 100,00 %
05.12.2021 06:28 3,2 C 1,7 C 0,6 C 93 % 999,4 hPa 0,0 l/m 0 min 0 min 0 W/m 6,4 km/h (2 Bft) 95,74 %
05.12.2021 06:30 3,2 C 1,7 C 0,6 C 93 % 999,4 hPa 0,0 l/m 0 min 0 min 0 W/m 6,4 km/h (2 Bft) 97,87 %
05.12.2021 06:32 3,2 C 1,7 C 0,6 C 93 % 999,5 hPa 0,0 l/m 0 min 0 min 0 W/m 9,7 km/h (2 Bft) 96,15 %
05.12.2021 06:34 3,1 C 1,7 C 0,6 C 93 % 999,5 hPa 0,0 l/m 0 min 0 min 0 W/m 6,4 km/h (2 Bft) 100,00 %
05.12.2021 06:36 3,1 C 1,7 C 0,6 C 94 % 999,5 hPa 0,0 l/m 0 min 0 min 0 W/m 9,7 km/h (2 Bft) 97,87 %
05.12.2021 06:38 3,1 C 1,7 C 0,6 C 94 % 999,6 hPa 0,0 l/m 0 min 0 min 0 W/m 9,7 km/h (2 Bft) 100,00 %
05.12.2021 06:40 3,1 C 1,7 C 0,6 C 94 % 999,7 hPa 0,0 l/m 0 min 0 min 0 W/m 16,1 km/h (3 Bft) 97,87 %
05.12.2021 06:42 3,1 C 1,7 C 0,6 C 94 % 999,7 hPa 0,0 l/m 0 min 0 min 0 W/m 12,9 km/h (3 Bft) 100,00 %
05.12.2021 06:44 3,1 C 1,7 C 0,6 C 94 % 999,7 hPa 0,0 l/m 0 min 0 min 0 W/m 12,9 km/h (3 Bft) 97,87 %
05.12.2021 06:46 3,1 C 1,7 C 0,6 C 94 % 999,7 hPa 0,0 l/m 0 min 0 min 0 W/m 9,7 km/h (2 Bft) 96,15 %
05.12.2021 06:48 3,2 C 1,7 C 0,6 C 94 % 999,7 hPa 0,0 l/m 0 min 0 min 0 W/m 12,9 km/h (3 Bft) 97,87 %
05.12.2021 06:50 3,2 C 2,2 C 0,6 C 94 % 999,7 hPa 0,0 l/m 0 min 0 min 0 W/m 12,9 km/h (3 Bft) 97,87 %
05.12.2021 06:52 3,2 C 2,2 C 0,6 C 94 % 999,7 hPa 0,0 l/m 0 min 0 min 0 W/m 9,7 km/h (2 Bft) 97,56 %
05.12.2021 06:54 3,2 C 2,2 C 0,6 C 94 % 999,7 hPa 0,0 l/m 0 min 0 min 0 W/m 12,9 km/h (3 Bft) 97,87 %
05.12.2021 06:56 3,2 C 2,2 C 0,6 C 94 % 999,8 hPa 0,0 l/m 0 min 0 min 0 W/m 6,4 km/h (2 Bft) 97,87 %
05.12.2021 06:58 3,2 C 2,2 C 0,6 C 94 % 999,8 hPa 0,0 l/m 0 min 0 min 0 W/m 6,4 km/h (2 Bft) 97,83 %
05.12.2021 07:00 3,2 C 2,2 C 1,1 C 94 % 999,7 hPa 0,0 l/m 0 min 0 min 0 W/m 12,9 km/h (3 Bft) 97,87 %
05.12.2021 07:02 3,3 C 2,2 C 1,1 C 94 % 999,8 hPa 0,0 l/m 0 min 0 min 0 W/m 12,9 km/h (3 Bft) 94,34 %
05.12.2021 07:04 3,3 C 2,2 C 1,1 C 94 % 999,8 hPa 0,0 l/m 0 min 0 min 0 W/m 9,7 km/h (2 Bft) 100,00 %
05.12.2021 07:06 3,3 C 2,2 C 1,1 C 94 % 999,8 hPa 0,0 l/m 0 min 0 min 0 W/m 12,9 km/h (3 Bft) 95,74 %
05.12.2021 07:08 3,3 C 2,2 C 1,1 C 94 % 999,8 hPa 0,0 l/m 0 min 0 min 0 W/m 16,1 km/h (3 Bft) 97,87 %
05.12.2021 07:10 3,4 C 2,2 C 1,1 C 94 % 999,8 hPa 0,0 l/m 0 min 0 min 0 W/m 9,7 km/h (2 Bft) 97,83 %
05.12.2021 07:12 3,4 C 2,2 C 1,1 C 94 % 999,8 hPa 0,0 l/m 0 min 0 min 0 W/m 12,9 km/h (3 Bft) 97,87 %
05.12.2021 07:14 3,4 C 2,8 C 1,1 C 94 % 999,8 hPa 0,0 l/m 0 min 0 min 0 W/m 6,4 km/h (2 Bft) 97,87 %
05.12.2021 07:16 3,5 C 2,8 C 1,1 C 94 % 999,8 hPa 0,0 l/m 0 min 0 min 0 W/m 6,4 km/h (2 Bft) 98,11 %
05.12.2021 07:18 3,5 C 2,8 C 1,1 C 94 % 999,8 hPa 0,0 l/m 0 min 0 min 0 W/m 12,9 km/h (3 Bft) 97,87 %
05.12.2021 07:20 3,5 C 2,8 C 1,1 C 94 % 999,8 hPa 0,0 l/m 0 min 0 min 0 W/m 9,7 km/h (2 Bft) 95,65 %
05.12.2021 07:22 3,5 C 2,8 C 1,1 C 94 % 999,8 hPa 0,0 l/m 0 min 0 min 0 W/m 9,7 km/h (2 Bft) 97,87 %
05.12.2021 07:25 3,6 C 2,8 C 1,7 C 94 % 999,9 hPa 0,0 l/m 0 min 0 min 0 W/m 12,9 km/h (3 Bft) 98,57 %
05.12.2021 07:26 3,6 C 2,8 C 1,7 C 94 % 999,9 hPa 0,0 l/m 0 min 0 min 0 W/m 6,4 km/h (2 Bft) 95,83 %
05.12.2021 07:28 3,6 C 2,8 C 1,7 C 94 % 999,9 hPa 0,0 l/m 0 min 0 min 0 W/m 6,4 km/h (2 Bft) 97,87 %
05.12.2021 07:30 3,6 C 2,8 C 1,7 C 93 % 999,9 hPa 0,0 l/m 0 min 0 min 0 W/m 12,9 km/h (3 Bft) 97,83 %
05.12.2021 07:32 3,6 C 2,8 C 1,7 C 94 % 999,9 hPa 0,0 l/m 0 min 0 min 0 W/m 6,4 km/h (2 Bft) 97,87 %
05.12.2021 07:34 3,7 C 2,8 C 1,7 C 94 % 999,9 hPa 0,0 l/m 0 min 0 min 0 W/m 3,2 km/h (1 Bft) 100,00 %
05.12.2021 07:36 3,7 C 2,8 C 1,7 C 94 % 1000,0 hPa 0,0 l/m 0 min 0 min 0 W/m 12,9 km/h (3 Bft) 97,87 %
05.12.2021 07:38 3,7 C 2,8 C 1,7 C 94 % 999,9 hPa 0,0 l/m 0 min 0 min 0 W/m 6,4 km/h (2 Bft) 97,87 %
05.12.2021 07:40 3,7 C 2,8 C 1,7 C 94 % 999,9 hPa 0,0 l/m 0 min 0 min 0 W/m 6,4 km/h (2 Bft) 90,24 %
05.12.2021 07:42 3,7 C 2,8 C 1,7 C 93 % 999,9 hPa 0,0 l/m 0 min 0 min 0 W/m 6,4 km/h (2 Bft) 57,45 %
05.12.2021 07:44 3,7 C 2,8 C 1,7 C 93 % 999,9 hPa 0,0 l/m 0 min 0 min 0 W/m 12,9 km/h (3 Bft) 95,65 %
05.12.2021 07:46 3,7 C 2,8 C 1,7 C 93 % 999,9 hPa 0,0 l/m 0 min 0 min 0 W/m 12,9 km/h (3 Bft) 100,00 %
05.12.2021 07:48 3,7 C 2,8 C 1,7 C 93 % 999,9 hPa 0,0 l/m 0 min 0 min 0 W/m 12,9 km/h (3 Bft) 95,74 %
05.12.2021 07:50 3,8 C 2,8 C 1,7 C 93 % 999,9 hPa 0,0 l/m 0 min 0 min 0 W/m 12,9 km/h (3 Bft) 97,87 %
05.12.2021 07:52 3,8 C 2,8 C 1,7 C 93 % 1000,0 hPa 0,0 l/m 0 min 0 min 0 W/m 12,9 km/h (3 Bft) 97,87 %
05.12.2021 07:54 3,8 C 2,8 C 1,7 C 93 % 1000,0 hPa 0,0 l/m 0 min 0 min 0 W/m 12,9 km/h (3 Bft) 97,83 %
05.12.2021 07:56 3,8 C 2,8 C 1,7 C 93 % 1000,1 hPa 0,0 l/m 0 min 0 min 0 W/m 12,9 km/h (3 Bft) 97,87 %
05.12.2021 07:58 3,8 C 2,8 C 1,7 C 93 % 1000,1 hPa 0,0 l/m 0 min 0 min 0 W/m 9,7 km/h (2 Bft) 97,87 %
05.12.2021 08:00 3,8 C 2,8 C 1,7 C 93 % 1000,1 hPa 0,0 l/m 0 min 0 min 0 W/m 12,9 km/h (3 Bft) 95,74 %
05.12.2021 08:02 3,8 C 2,8 C 1,7 C 93 % 1000,1 hPa 0,0 l/m 0 min 0 min 0 W/m 12,9 km/h (3 Bft) 95,74 %
05.12.2021 08:04 3,9 C 2,8 C 1,7 C 93 % 1000,1 hPa 0,0 l/m 0 min 0 min 0 W/m 6,4 km/h (2 Bft) 97,56 %
05.12.2021 08:06 3,9 C 2,8 C 1,7 C 93 % 1000,1 hPa 0,0 l/m 0 min 0 min 0 W/m 12,9 km/h (3 Bft) 95,74 %
05.12.2021 08:08 3,9 C 2,8 C 1,7 C 93 % 1000,1 hPa 0,0 l/m 0 min 0 min 0 W/m 12,9 km/h (3 Bft) 97,83 %
05.12.2021 08:10 3,9 C 2,8 C 1,7 C 93 % 1000,1 hPa 0,0 l/m 0 min 0 min 0 W/m 12,9 km/h (3 Bft) 93,62 %
05.12.2021 08:12 3,9 C 2,8 C 1,7 C 93 % 1000,2 hPa 0,0 l/m 0 min 0 min 0 W/m 16,1 km/h (3 Bft) 95,74 %
05.12.2021 08:14 3,9 C 2,8 C 1,7 C 93 % 1000,2 hPa 0,0 l/m 0 min 0 min 0 W/m 9,7 km/h (2 Bft) 97,87 %
05.12.2021 08:16 3,9 C 2,8 C 1,7 C 93 % 1000,2 hPa 0,0 l/m 0 min 0 min 0 W/m 12,9 km/h (3 Bft) 96,23 %
05.12.2021 08:18 3,9 C 2,8 C 1,7 C 93 % 1000,2 hPa 0,0 l/m 0 min 0 min 0 W/m 6,4 km/h (2 Bft) 95,65 %
05.12.2021 08:20 3,9 C 2,8 C 1,7 C 93 % 1000,2 hPa 0,0 l/m 0 min 0 min 2 W/m 12,9 km/h (3 Bft) 97,87 %
05.12.2021 08:22 3,9 C 2,8 C 1,7 C 93 % 1000,2 hPa 0,0 l/m 0 min 0 min 5 W/m 16,1 km/h (3 Bft) 97,87 %
05.12.2021 08:24 3,9 C 2,8 C 1,7 C 93 % 1000,2 hPa 0,0 l/m 0 min 0 min 8 W/m 9,7 km/h (2 Bft) 97,87 %
05.12.2021 08:26 3,9 C 2,8 C 1,7 C 93 % 1000,3 hPa 0,0 l/m 0 min 0 min 10 W/m 6,4 km/h (2 Bft) 97,87 %
05.12.2021 08:28 3,9 C 2,8 C 1,7 C 93 % 1000,3 hPa 0,0 l/m 0 min 0 min 12 W/m 12,9 km/h (3 Bft) 97,87 %
05.12.2021 08:30 3,9 C 2,8 C 1,7 C 93 % 1000,3 hPa 0,0 l/m 0 min 0 min 12 W/m 12,9 km/h (3 Bft) 97,83 %
05.12.2021 08:32 3,9 C 2,8 C 1,7 C 93 % 1000,4 hPa 0,0 l/m 0 min 0 min 12 W/m 12,9 km/h (3 Bft) 97,87 %
05.12.2021 08:34 3,9 C 2,8 C 1,7 C 93 % 1000,3 hPa 0,0 l/m 0 min 0 min 12 W/m 16,1 km/h (3 Bft) 97,87 %
05.12.2021 08:36 3,9 C 2,8 C 1,7 C 92 % 1000,4 hPa 0,0 l/m 0 min 0 min 11 W/m 6,4 km/h (2 Bft) 97,87 %
05.12.2021 08:38 4,0 C 2,8 C 1,7 C 92 % 1000,4 hPa 0,0 l/m 0 min 0 min 11 W/m 12,9 km/h (3 Bft) 97,87 %
05.12.2021 08:40 4,0 C 2,8 C 1,7 C 92 % 1000,5 hPa 0,0 l/m 0 min 0 min 11 W/m 12,9 km/h (3 Bft) 97,87 %
05.12.2021 08:42 4,0 C 2,8 C 1,7 C 92 % 1000,5 hPa 0,0 l/m 0 min 0 min 9 W/m 12,9 km/h (3 Bft) 97,83 %
05.12.2021 08:43 3,9 C 2,8 C 1,7 C 92 % 1000,5 hPa 0,0 l/m 0 min 0 min 7 W/m 12,9 km/h (3 Bft) 97,87 %
05.12.2021 08:46 4,0 C 2,8 C 1,7 C 92 % 1000,5 hPa 0,0 l/m 0 min 0 min 8 W/m 12,9 km/h (3 Bft) 93,62 %
05.12.2021 08:48 3,9 C 2,8 C 1,7 C 92 % 1000,5 hPa 0,0 l/m 0 min 0 min 8 W/m 9,7 km/h (2 Bft) 93,62 %
05.12.2021 08:50 4,0 C 2,8 C 1,7 C 92 % 1000,6 hPa 0,0 l/m 0 min 0 min 9 W/m 16,1 km/h (3 Bft) 97,87 %
05.12.2021 08:52 4,0 C 2,8 C 1,7 C 92 % 1000,6 hPa 0,0 l/m 0 min 0 min 9 W/m 16,1 km/h (3 Bft) 97,87 %
05.12.2021 08:54 4,0 C 2,8 C 1,7 C 92 % 1000,6 hPa 0,0 l/m 0 min 0 min 9 W/m 19,3 km/h (3 Bft) 97,83 %
05.12.2021 08:56 4,0 C 2,8 C 1,7 C 92 % 1000,6 hPa 0,0 l/m 0 min 0 min 9 W/m 12,9 km/h (3 Bft) 97,56 %
05.12.2021 08:58 4,0 C 2,8 C 1,7 C 92 % 1000,7 hPa 0,0 l/m 0 min 0 min 8 W/m 12,9 km/h (3 Bft) 100,00 %
05.12.2021 09:00 4,0 C 2,8 C 1,7 C 92 % 1000,7 hPa 0,0 l/m 0 min 0 min 7 W/m 12,9 km/h (3 Bft) 100,00 %
05.12.2021 09:02 4,0 C 2,8 C 1,7 C 92 % 1000,8 hPa 0,0 l/m 0 min 0 min 7 W/m 6,4 km/h (2 Bft) 96,00 %
05.12.2021 09:04 4,0 C 2,8 C 1,7 C 92 % 1000,7 hPa 0,0 l/m 0 min 0 min 8 W/m 12,9 km/h (3 Bft) 97,92 %
05.12.2021 09:06 3,9 C 2,8 C 1,7 C 92 % 1000,8 hPa 0,0 l/m 0 min 0 min 7 W/m 16,1 km/h (3 Bft) 100,00 %
05.12.2021 09:08 4,0 C 2,8 C 1,7 C 92 % 1000,8 hPa 0,0 l/m 0 min 0 min 9 W/m 12,9 km/h (3 Bft) 100,00 %
05.12.2021 09:10 4,0 C 2,8 C 1,7 C 92 % 1000,8 hPa 0,0 l/m 0 min 0 min 9 W/m 6,4 km/h (2 Bft) 100,00 %
05.12.2021 09:12 3,9 C 2,8 C 1,7 C 92 % 1000,8 hPa 0,0 l/m 0 min 0 min 10 W/m 6,4 km/h (2 Bft) 100,00 %
05.12.2021 09:14 3,9 C 2,8 C 1,7 C 92 % 1000,8 hPa 0,0 l/m 0 min 0 min 11 W/m 9,7 km/h (2 Bft) 100,00 %
05.12.2021 09:16 3,9 C 2,8 C 1,7 C 92 % 1000,8 hPa 0,0 l/m 0 min 0 min 11 W/m 6,4 km/h (2 Bft) 97,87 %
05.12.2021 09:18 4,0 C 2,8 C 1,7 C 92 % 1000,9 hPa 0,0 l/m 0 min 0 min 11 W/m 6,4 km/h (2 Bft) 100,00 %
05.12.2021 09:20 4,0 C 2,8 C 1,7 C 92 % 1000,9 hPa 0,0 l/m 0 min 2 min 11 W/m 9,7 km/h (2 Bft) 100,00 %
05.12.2021 09:22 4,0 C 2,8 C 1,7 C 92 % 1000,9 hPa 0,0 l/m 0 min 2 min 12 W/m 12,9 km/h (3 Bft) 100,00 %
05.12.2021 09:24 4,0 C 2,8 C 1,7 C 92 % 1000,9 hPa 0,2 l/m 0 min 0 min 12 W/m 12,9 km/h (3 Bft) 97,87 %
05.12.2021 09:26 4,0 C 2,8 C 1,7 C 92 % 1000,9 hPa 0,0 l/m 0 min 0 min 14 W/m 9,7 km/h (2 Bft) 97,87 %
05.12.2021 09:28 4,0 C 2,8 C 1,7 C 92 % 1000,9 hPa 0,0 l/m 0 min 0 min 14 W/m 3,2 km/h (1 Bft) 100,00 %
05.12.2021 09:30 4,0 C 2,8 C 1,7 C 93 % 1000,9 hPa 0,0 l/m 0 min 0 min 14 W/m 6,4 km/h (2 Bft) 100,00 %
05.12.2021 09:32 4,0 C 2,8 C 1,7 C 93 % 1000,9 hPa 0,0 l/m 0 min 0 min 16 W/m 12,9 km/h (3 Bft) 100,00 %
05.12.2021 09:34 4,0 C 2,8 C 1,7 C 93 % 1000,9 hPa 0,0 l/m 0 min 0 min 16 W/m 12,9 km/h (3 Bft) 97,87 %
05.12.2021 09:36 4,1 C 2,8 C 1,7 C 93 % 1000,9 hPa 0,0 l/m 0 min 0 min 16 W/m 6,4 km/h (2 Bft) 100,00 %
05.12.2021 09:38 4,1 C 2,8 C 1,7 C 93 % 1000,9 hPa 0,0 l/m 0 min 0 min 15 W/m 6,4 km/h (2 Bft) 100,00 %
05.12.2021 09:40 4,1 C 2,8 C 1,7 C 93 % 1000,9 hPa 0,0 l/m 0 min 0 min 14 W/m 6,4 km/h (2 Bft) 97,87 %
05.12.2021 09:42 4,1 C 2,8 C 1,7 C 93 % 1000,9 hPa 0,0 l/m 0 min 0 min 14 W/m 6,4 km/h (2 Bft) 95,65 %
05.12.2021 09:44 4,1 C 2,8 C 1,7 C 93 % 1001,0 hPa 0,0 l/m 0 min 0 min 14 W/m 6,4 km/h (2 Bft) 95,74 %
05.12.2021 09:46 4,1 C 2,8 C 1,7 C 93 % 1000,9 hPa 0,0 l/m 0 min 0 min 16 W/m 12,9 km/h (3 Bft) 95,74 %
05.12.2021 09:48 4,1 C 2,8 C 1,7 C 93 % 1001,0 hPa 0,0 l/m 0 min 0 min 16 W/m 12,9 km/h (3 Bft) 95,74 %
05.12.2021 09:50 4,1 C 2,8 C 1,7 C 93 % 1001,0 hPa 0,0 l/m 0 min 0 min 17 W/m 12,9 km/h (3 Bft) 95,74 %
05.12.2021 09:52 4,1 C 2,8 C 1,7 C 93 % 1001,0 hPa 0,0 l/m 0 min 2 min 18 W/m 6,4 km/h (2 Bft) 95,65 %
05.12.2021 09:54 4,1 C 2,8 C 1,7 C 93 % 1001,0 hPa 0,0 l/m 0 min 2 min 17 W/m 12,9 km/h (3 Bft) 93,62 %
05.12.2021 09:56 4,1 C 2,8 C 1,7 C 93 % 1001,1 hPa 0,0 l/m 0 min 2 min 15 W/m 12,9 km/h (3 Bft) 95,74 %
05.12.2021 09:58 4,1 C 2,8 C 1,7 C 93 % 1001,1 hPa 0,0 l/m 0 min 2 min 13 W/m 12,9 km/h (3 Bft) 93,62 %
05.12.2021 10:00 4,1 C 2,8 C 1,1 C 93 % 1001,1 hPa 0,0 l/m 0 min 2 min 12 W/m 12,9 km/h (3 Bft) 95,74 %
05.12.2021 10:02 4,1 C 2,8 C 1,1 C 93 % 1001,2 hPa 0,0 l/m 0 min 2 min 12 W/m 12,9 km/h (3 Bft) 95,74 %
05.12.2021 10:04 4,1 C 2,8 C 1,1 C 93 % 1001,1 hPa 0,0 l/m 0 min 2 min 12 W/m 9,7 km/h (2 Bft) 95,65 %
05.12.2021 10:06 4,1 C 2,8 C 1,1 C 93 % 1001,2 hPa 0,0 l/m 0 min 2 min 13 W/m 12,9 km/h (3 Bft) 91,49 %
05.12.2021 10:08 4,1 C 2,8 C 1,1 C 93 % 1001,2 hPa 0,0 l/m 0 min 2 min 16 W/m 6,4 km/h (2 Bft) 93,62 %
05.12.2021 10:10 4,1 C 2,8 C 1,1 C 93 % 1001,3 hPa 0,0 l/m 0 min 2 min 18 W/m 16,1 km/h (3 Bft) 95,74 %
05.12.2021 10:12 4,1 C 2,8 C 1,1 C 93 % 1001,3 hPa 0,0 l/m 0 min 0 min 20 W/m 6,4 km/h (2 Bft) 95,74 %
05.12.2021 10:14 4,1 C 2,8 C 1,1 C 93 % 1001,3 hPa 0,0 l/m 0 min 0 min 26 W/m 12,9 km/h (3 Bft) 95,74 %
05.12.2021 10:16 4,1 C 2,8 C 1,1 C 93 % 1001,3 hPa 0,0 l/m 0 min 0 min 30 W/m 6,4 km/h (2 Bft) 97,83 %
05.12.2021 10:18 4,1 C 2,8 C 1,1 C 93 % 1001,4 hPa 0,0 l/m 0 min 0 min 34 W/m 6,4 km/h (2 Bft) 95,74 %
05.12.2021 10:20 4,1 C 2,8 C 1,1 C 93 % 1001,4 hPa 0,0 l/m 0 min 0 min 40 W/m 6,4 km/h (2 Bft) 97,87 %
05.12.2021 10:22 4,1 C 3,3 C 1,7 C 93 % 1001,4 hPa 0,0 l/m 0 min 0 min 48 W/m 6,4 km/h (2 Bft) 97,87 %
05.12.2021 10:24 4,1 C 3,3 C 1,7 C 93 % 1001,5 hPa 0,0 l/m 0 min 0 min 60 W/m 6,4 km/h (2 Bft) 97,87 %
05.12.2021 10:26 4,2 C 3,3 C 1,7 C 93 % 1001,5 hPa 0,0 l/m 0 min 0 min 68 W/m 9,7 km/h (2 Bft) 91,49 %
05.12.2021 10:28 4,2 C 3,3 C 1,7 C 93 % 1001,5 hPa 0,0 l/m 0 min 0 min 64 W/m 16,1 km/h (3 Bft) 95,65 %
05.12.2021 10:30 4,2 C 3,3 C 1,7 C 94 % 1001,5 hPa 0,0 l/m 0 min 2 min 53 W/m 16,1 km/h (3 Bft) 97,87 %
05.12.2021 10:32 4,2 C 3,3 C 1,7 C 93 % 1001,6 hPa 0,0 l/m 0 min 0 min 52 W/m 6,4 km/h (2 Bft) 97,29 %
05.12.2021 10:34 4,2 C 3,3 C 1,7 C 93 % 1001,6 hPa 0,0 l/m 0 min 2 min 54 W/m 9,7 km/h (2 Bft) 93,55 %
05.12.2021 10:36 4,2 C 3,3 C 1,7 C 93 % 1001,6 hPa 0,0 l/m 0 min 2 min 58 W/m 12,9 km/h (3 Bft) 97,87 %
05.12.2021 10:38 4,3 C 3,3 C 1,7 C 94 % 1001,7 hPa 0,0 l/m 0 min 2 min 57 W/m 12,9 km/h (3 Bft) 100,00 %
05.12.2021 10:40 4,3 C 3,3 C 1,7 C 94 % 1001,7 hPa 0,0 l/m 0 min 2 min 53 W/m 12,9 km/h (3 Bft) 97,83 %
05.12.2021 10:42 4,3 C 3,3 C 1,7 C 94 % 1001,7 hPa 0,0 l/m 0 min 2 min 54 W/m 16,1 km/h (3 Bft) 97,87 %
05.12.2021 10:44 4,3 C 3,3 C 1,7 C 94 % 1001,8 hPa 0,0 l/m 0 min 0 min 57 W/m 6,4 km/h (2 Bft) 95,74 %
05.12.2021 10:46 4,4 C 3,3 C 1,7 C 94 % 1001,8 hPa 0,0 l/m 0 min 0 min 57 W/m 6,4 km/h (2 Bft) 97,87 %
05.12.2021 10:48 4,4 C 3,3 C 1,7 C 94 % 1001,8 hPa 0,0 l/m 0 min 0 min 55 W/m 12,9 km/h (3 Bft) 97,87 %
05.12.2021 10:50 4,4 C 3,3 C 1,7 C 94 % 1001,8 hPa 0,0 l/m 0 min 0 min 55 W/m 6,4 km/h (2 Bft) 97,87 %
05.12.2021 10:52 4,4 C 3,3 C 1,7 C 94 % 1001,8 hPa 0,0 l/m 0 min 0 min 57 W/m 6,4 km/h (2 Bft) 97,83 %
05.12.2021 10:54 4,4 C 3,3 C 1,7 C 94 % 1001,8 hPa 0,0 l/m 0 min 0 min 63 W/m 6,4 km/h (2 Bft) 97,87 %
05.12.2021 10:56 4,4 C 3,3 C 1,7 C 94 % 1001,9 hPa 0,0 l/m 0 min 0 min 73 W/m 6,4 km/h (2 Bft) 97,87 %
05.12.2021 10:58 4,4 C 3,9 C 1,7 C 94 % 1001,9 hPa 0,0 l/m 0 min 0 min 77 W/m 6,4 km/h (2 Bft) 97,87 %
05.12.2021 11:00 4,5 C 3,9 C 1,7 C 94 % 1001,9 hPa 0,0 l/m 0 min 0 min 72 W/m 12,9 km/h (3 Bft) 97,87 %
05.12.2021 11:02 4,5 C 3,9 C 1,7 C 94 % 1002,0 hPa 0,0 l/m 0 min 2 min 69 W/m 6,4 km/h (2 Bft) 95,65 %
05.12.2021 11:04 4,5 C 3,9 C 1,7 C 94 % 1001,9 hPa 0,0 l/m 0 min 2 min 70 W/m 6,4 km/h (2 Bft) 97,87 %
05.12.2021 11:06 4,6 C 3,9 C 1,7 C 94 % 1001,9 hPa 0,0 l/m 0 min 2 min 74 W/m 12,9 km/h (3 Bft) 97,87 %
05.12.2021 11:08 4,6 C 3,9 C 1,7 C 94 % 1002,0 hPa 0,0 l/m 0 min 2 min 72 W/m 12,9 km/h (3 Bft) 95,74 %
05.12.2021 11:10 4,6 C 3,9 C 1,7 C 94 % 1002,0 hPa 0,2 l/m 0 min 2 min 80 W/m 12,9 km/h (3 Bft) 97,87 %
05.12.2021 11:12 4,6 C 3,9 C 1,7 C 94 % 1002,0 hPa 0,0 l/m 0 min 2 min 94 W/m 9,7 km/h (2 Bft) 97,87 %
05.12.2021 11:14 4,6 C 3,9 C 2,2 C 94 % 1002,0 hPa 0,0 l/m 0 min 0 min 95 W/m 6,4 km/h (2 Bft) 97,83 %
05.12.2021 11:16 4,6 C 3,9 C 2,2 C 94 % 1002,0 hPa 0,0 l/m 0 min 2 min 89 W/m 6,4 km/h (2 Bft) 95,74 %
05.12.2021 11:18 4,7 C 3,9 C 2,2 C 94 % 1002,1 hPa 0,0 l/m 0 min 2 min 96 W/m 9,7 km/h (2 Bft) 95,74 %
05.12.2021 11:20 4,7 C 3,9 C 2,2 C 94 % 1002,1 hPa 0,0 l/m 0 min 2 min 94 W/m 6,4 km/h (2 Bft) 97,87 %
05.12.2021 11:22 4,7 C 3,9 C 2,2 C 94 % 1002,2 hPa 0,0 l/m 0 min 2 min 85 W/m 12,9 km/h (3 Bft) 95,74 %
05.12.2021 11:24 4,7 C 3,9 C 2,2 C 94 % 1002,1 hPa 0,0 l/m 0 min 2 min 76 W/m 12,9 km/h (3 Bft) 100,00 %
05.12.2021 11:26 4,8 C 3,9 C 2,2 C 94 % 1002,1 hPa 0,0 l/m 0 min 2 min 80 W/m 9,7 km/h (2 Bft) 100,00 %
05.12.2021 11:28 4,8 C 3,9 C 2,2 C 94 % 1002,3 hPa 0,0 l/m 0 min 2 min 86 W/m 6,4 km/h (2 Bft) 100,00 %
05.12.2021 11:30 4,8 C 3,9 C 2,2 C 94 % 1002,2 hPa 0,0 l/m 0 min 2 min 91 W/m 6,4 km/h (2 Bft) 100,00 %
05.12.2021 11:32 4,8 C 3,9 C 2,2 C 94 % 1002,2 hPa 0,0 l/m 0 min 2 min 97 W/m 12,9 km/h (3 Bft) 97,87 %
05.12.2021 11:34 4,8 C 3,9 C 2,2 C 94 % 1002,2 hPa 0,0 l/m 0 min 2 min 106 W/m 6,4 km/h (2 Bft) 100,00 %
05.12.2021 11:36 4,9 C 3,9 C 2,2 C 94 % 1002,2 hPa 0,0 l/m 0 min 2 min 105 W/m 6,4 km/h (2 Bft) 97,87 %
05.12.2021 11:38 4,9 C 3,9 C 2,2 C 94 % 1002,2 hPa 0,0 l/m 0 min 2 min 104 W/m 12,9 km/h (3 Bft) 100,00 %
05.12.2021 11:40 4,9 C 3,9 C 2,2 C 94 % 1002,2 hPa 0,0 l/m 0 min 0 min 105 W/m 19,3 km/h (3 Bft) 97,87 %
05.12.2021 11:42 4,9 C 3,9 C 2,2 C 94 % 1002,2 hPa 0,0 l/m 0 min 2 min 100 W/m 12,9 km/h (3 Bft) 97,87 %
05.12.2021 11:44 4,9 C 3,9 C 2,2 C 94 % 1002,3 hPa 0,0 l/m 0 min 2 min 99 W/m 12,9 km/h (3 Bft) 97,87 %
05.12.2021 11:46 4,9 C 4,4 C 2,2 C 94 % 1002,3 hPa 0,0 l/m 0 min 0 min 104 W/m 12,9 km/h (3 Bft) 95,74 %
05.12.2021 11:48 5,0 C 3,9 C 2,2 C 94 % 1002,2 hPa 0,2 l/m 0 min 2 min 114 W/m 12,9 km/h (3 Bft) 97,87 %
05.12.2021 11:50 5,0 C 3,9 C 2,2 C 94 % 1002,3 hPa 0,0 l/m 0 min 0 min 123 W/m 12,9 km/h (3 Bft) 95,65 %
05.12.2021 11:52 5,0 C 3,9 C 2,2 C 94 % 1002,3 hPa 0,0 l/m 0 min 2 min 125 W/m 12,9 km/h (3 Bft) 97,87 %
05.12.2021 11:54 5,1 C 4,4 C 2,2 C 94 % 1002,3 hPa 0,0 l/m 0 min 2 min 129 W/m 9,7 km/h (2 Bft) 97,87 %
05.12.2021 11:56 5,1 C 4,4 C 2,2 C 94 % 1002,3 hPa 0,0 l/m 0 min 0 min 129 W/m 6,4 km/h (2 Bft) 97,87 %
05.12.2021 11:58 5,1 C 4,4 C 2,2 C 95 % 1002,3 hPa 0,0 l/m 0 min 0 min 129 W/m 12,9 km/h (3 Bft) 97,87 %
05.12.2021 12:00 5,1 C 4,4 C 2,2 C 95 % 1002,3 hPa 0,0 l/m 0 min 2 min 132 W/m 6,4 km/h (2 Bft) 97,87 %
05.12.2021 12:02 5,2 C 4,4 C 2,2 C 94 % 1002,3 hPa 0,0 l/m 0 min 0 min 136 W/m 6,4 km/h (2 Bft) 95,65 %
05.12.2021 12:04 5,2 C 4,4 C 2,8 C 94 % 1002,3 hPa 0,0 l/m 0 min 2 min 145 W/m 12,9 km/h (3 Bft) 97,87 %
05.12.2021 12:07 5,2 C 5,0 C 2,8 C 94 % 1002,2 hPa 0,0 l/m 3 min 3 min 162 W/m 6,4 km/h (2 Bft) 97,18 %
05.12.2021 12:08 5,2 C 5,0 C 2,8 C 94 % 1002,2 hPa 0,0 l/m 1 min 0 min 169 W/m 6,4 km/h (2 Bft) 100,00 %
05.12.2021 12:10 5,3 C 5,0 C 2,8 C 95 % 1002,3 hPa 0,0 l/m 2 min 0 min 171 W/m 12,9 km/h (3 Bft) 97,87 %
05.12.2021 12:12 5,3 C 5,0 C 2,8 C 95 % 1002,3 hPa 0,0 l/m 2 min 2 min 187 W/m 12,9 km/h (3 Bft) 97,87 %
05.12.2021 12:14 5,3 C 5,6 C 2,8 C 95 % 1002,3 hPa 0,0 l/m 2 min 0 min 222 W/m 12,9 km/h (3 Bft) 100,00 %
05.12.2021 12:16 5,4 C 5,6 C 2,8 C 95 % 1002,3 hPa 0,0 l/m 2 min 0 min 229 W/m 12,9 km/h (3 Bft) 100,00 %
05.12.2021 12:18 5,4 C 6,1 C 2,8 C 95 % 1002,3 hPa 0,0 l/m 2 min 0 min 214 W/m 6,4 km/h (2 Bft) 100,00 %
05.12.2021 12:20 5,5 C 6,1 C 2,8 C 95 % 1002,3 hPa 0,0 l/m 2 min 0 min 198 W/m 9,7 km/h (2 Bft) 100,00 %
05.12.2021 12:22 5,6 C 6,1 C 2,8 C 95 % 1002,2 hPa 0,0 l/m 2 min 0 min 173 W/m 6,4 km/h (2 Bft) 100,00 %
05.12.2021 12:24 5,6 C 6,1 C 2,8 C 95 % 1002,3 hPa 0,0 l/m 2 min 0 min 165 W/m 12,9 km/h (3 Bft) 97,87 %
05.12.2021 12:26 5,6 C 5,6 C 2,8 C 95 % 1002,3 hPa 0,0 l/m 2 min 0 min 165 W/m 19,3 km/h (3 Bft) 97,83 %
05.12.2021 12:28 5,6 C 5,6 C 2,8 C 95 % 1002,3 hPa 0,0 l/m 2 min 0 min 167 W/m 6,4 km/h (2 Bft) 100,00 %
05.12.2021 12:30 5,6 C 5,6 C 2,8 C 95 % 1002,3 hPa 0,0 l/m 2 min 0 min 165 W/m 6,4 km/h (2 Bft) 97,87 %
05.12.2021 12:32 5,7 C 5,6 C 2,8 C 94 % 1002,3 hPa 0,0 l/m 2 min 0 min 164 W/m 12,9 km/h (3 Bft) 100,00 %
05.12.2021 12:34 5,7 C 5,6 C 2,8 C 94 % 1002,3 hPa 0,0 l/m 2 min 0 min 166 W/m 9,7 km/h (2 Bft) 100,00 %
05.12.2021 12:36 5,7 C 5,6 C 2,8 C 94 % 1002,3 hPa 0,0 l/m 2 min 0 min 165 W/m 12,9 km/h (3 Bft) 100,00 %
05.12.2021 12:38 5,7 C 5,6 C 2,8 C 94 % 1002,3 hPa 0,0 l/m 2 min 0 min 159 W/m 12,9 km/h (3 Bft) 100,00 %
05.12.2021 12:40 5,7 C 5,6 C 2,8 C 94 % 1002,4 hPa 0,0 l/m 0 min 0 min 154 W/m 12,9 km/h (3 Bft) 97,87 %
05.12.2021 12:42 5,7 C 5,6 C 2,8 C 94 % 1002,4 hPa 0,0 l/m 0 min 0 min 154 W/m 12,9 km/h (3 Bft) 95,74 %
05.12.2021 12:44 5,8 C 5,6 C 2,8 C 94 % 1002,4 hPa 0,0 l/m 2 min 0 min 160 W/m 12,9 km/h (3 Bft) 97,87 %
05.12.2021 12:46 5,8 C 5,6 C 2,8 C 94 % 1002,4 hPa 0,0 l/m 0 min 0 min 151 W/m 16,1 km/h (3 Bft) 95,74 %
05.12.2021 12:48 5,8 C 5,6 C 2,8 C 94 % 1002,4 hPa 0,0 l/m 0 min 0 min 136 W/m 12,9 km/h (3 Bft) 95,74 %
05.12.2021 12:50 5,8 C 5,6 C 2,8 C 94 % 1002,5 hPa 0,0 l/m 0 min 0 min 134 W/m 12,9 km/h (3 Bft) 95,65 %
05.12.2021 12:52 5,8 C 5,6 C 2,8 C 94 % 1002,5 hPa 0,0 l/m 0 min 0 min 133 W/m 6,4 km/h (2 Bft) 97,87 %
05.12.2021 12:54 5,8 C 5,6 C 2,8 C 94 % 1002,4 hPa 0,0 l/m 0 min 0 min 142 W/m 12,9 km/h (3 Bft) 89,36 %
05.12.2021 12:56 5,8 C 5,6 C 2,8 C 94 % 1002,4 hPa 0,0 l/m 2 min 0 min 162 W/m 12,9 km/h (3 Bft) 97,87 %
05.12.2021 12:58 5,8 C 5,6 C 2,8 C 94 % 1002,4 hPa 0,0 l/m 2 min 0 min 155 W/m 12,9 km/h (3 Bft) 97,87 %
05.12.2021 13:00 5,9 C 5,6 C 2,8 C 94 % 1002,5 hPa 0,0 l/m 2 min 0 min 156 W/m 12,9 km/h (3 Bft) 97,87 %
05.12.2021 13:02 5,9 C 6,1 C 3,3 C 94 % 1002,5 hPa 0,0 l/m 2 min 0 min 170 W/m 9,7 km/h (2 Bft) 97,83 %
05.12.2021 13:04 5,9 C 6,1 C 3,3 C 94 % 1002,4 hPa 0,0 l/m 2 min 0 min 196 W/m 12,9 km/h (3 Bft) 93,62 %
05.12.2021 13:06 5,9 C 6,7 C 3,3 C 93 % 1002,4 hPa 0,0 l/m 2 min 0 min 205 W/m 12,9 km/h (3 Bft) 97,87 %
05.12.2021 13:08 6,0 C 7,2 C 3,3 C 93 % 1002,5 hPa 0,0 l/m 2 min 0 min 201 W/m 12,9 km/h (3 Bft) 95,74 %
05.12.2021 13:10 6,1 C 6,7 C 3,3 C 93 % 1002,5 hPa 0,0 l/m 2 min 0 min 185 W/m 16,1 km/h (3 Bft) 95,74 %
05.12.2021 13:12 6,1 C 6,7 C 3,3 C 93 % 1002,5 hPa 0,0 l/m 2 min 0 min 181 W/m 12,9 km/h (3 Bft) 97,83 %
05.12.2021 13:14 6,1 C 6,7 C 3,3 C 93 % 1002,5 hPa 0,0 l/m 2 min 0 min 182 W/m 9,7 km/h (2 Bft) 95,74 %
05.12.2021 13:16 6,2 C 6,7 C 3,3 C 93 % 1002,5 hPa 0,0 l/m 2 min 0 min 192 W/m 6,4 km/h (2 Bft) 91,49 %
05.12.2021 13:18 6,2 C 7,2 C 3,3 C 93 % 1002,5 hPa 0,0 l/m 2 min 0 min 205 W/m 6,4 km/h (2 Bft) 95,74 %
05.12.2021 13:20 6,3 C 9,4 C 3,3 C 92 % 1002,5 hPa 0,0 l/m 2 min 0 min 286 W/m 16,1 km/h (3 Bft) 95,74 %
05.12.2021 13:22 6,3 C 11,1 C 3,3 C 93 % 1002,5 hPa 0,0 l/m 2 min 0 min 352 W/m 6,4 km/h (2 Bft) 95,74 %
05.12.2021 13:24 6,4 C 10,0 C 3,9 C 92 % 1002,5 hPa 0,0 l/m 2 min 0 min 320 W/m 12,9 km/h (3 Bft) 95,65 %
05.12.2021 13:26 6,5 C 9,4 C 3,9 C 92 % 1002,5 hPa 0,0 l/m 2 min 0 min 226 W/m 12,9 km/h (3 Bft) 93,62 %
05.12.2021 13:28 6,6 C 8,3 C 3,9 C 92 % 1002,5 hPa 0,0 l/m 2 min 0 min 190 W/m 16,1 km/h (3 Bft) 97,87 %
05.12.2021 13:30 6,6 C 7,8 C 3,9 C 92 % 1002,5 hPa 0,0 l/m 0 min 0 min 143 W/m 12,9 km/h (3 Bft) 97,87 %
05.12.2021 13:32 6,7 C 7,2 C 3,9 C 91 % 1002,5 hPa 0,0 l/m 2 min 0 min 155 W/m 16,1 km/h (3 Bft) 97,87 %
05.12.2021 13:34 6,7 C 7,2 C 3,3 C 91 % 1002,5 hPa 0,0 l/m 2 min 0 min 158 W/m 19,3 km/h (3 Bft) 95,74 %
05.12.2021 13:36 6,7 C 7,2 C 3,3 C 90 % 1002,6 hPa 0,0 l/m 2 min 0 min 145 W/m 9,7 km/h (2 Bft) 97,83 %
05.12.2021 13:38 6,7 C 7,8 C 3,3 C 90 % 1002,5 hPa 0,0 l/m 2 min 0 min 208 W/m 9,7 km/h (2 Bft) 97,87 %
05.12.2021 13:40 6,7 C 7,2 C 3,3 C 90 % 1002,5 hPa 0,0 l/m 2 min 0 min 143 W/m 6,4 km/h (2 Bft) 97,87 %
05.12.2021 13:42 6,7 C 6,7 C 3,3 C 90 % 1002,5 hPa 0,0 l/m 0 min 0 min 121 W/m 12,9 km/h (3 Bft) 95,74 %
05.12.2021 13:44 6,7 C 6,7 C 3,3 C 89 % 1002,6 hPa 0,0 l/m 0 min 0 min 109 W/m 19,3 km/h (3 Bft) 97,87 %
05.12.2021 13:46 6,7 C 6,1 C 3,3 C 89 % 1002,6 hPa 0,0 l/m 0 min 0 min 105 W/m 9,7 km/h (2 Bft) 97,73 %
05.12.2021 13:48 6,7 C 6,1 C 3,3 C 89 % 1002,6 hPa 0,0 l/m 0 min 0 min 110 W/m 16,1 km/h (3 Bft) 95,74 %
05.12.2021 13:50 6,7 C 6,1 C 3,3 C 89 % 1002,6 hPa 0,0 l/m 0 min 0 min 110 W/m 3,2 km/h (1 Bft) 91,49 %
05.12.2021 13:52 6,7 C 6,1 C 3,3 C 88 % 1002,6 hPa 0,0 l/m 0 min 0 min 106 W/m 3,2 km/h (1 Bft) 95,65 %
05.12.2021 13:54 6,7 C 6,1 C 3,3 C 88 % 1002,7 hPa 0,0 l/m 0 min 0 min 98 W/m 6,4 km/h (2 Bft) 93,62 %
05.12.2021 13:56 6,7 C 6,1 C 3,9 C 88 % 1002,7 hPa 0,0 l/m 0 min 0 min 98 W/m 12,9 km/h (3 Bft) 95,74 %
05.12.2021 13:58 6,7 C 6,1 C 3,3 C 88 % 1002,7 hPa 0,0 l/m 0 min 0 min 94 W/m 6,4 km/h (2 Bft) 95,74 %
05.12.2021 14:00 6,7 C 5,6 C 3,9 C 88 % 1002,8 hPa 0,0 l/m 0 min 0 min 80 W/m 12,9 km/h (3 Bft) 97,87 %
05.12.2021 14:02 6,7 C 5,6 C 3,9 C 88 % 1002,8 hPa 0,0 l/m 0 min 0 min 66 W/m 6,4 km/h (2 Bft) 95,65 %
05.12.2021 14:04 6,7 C 5,6 C 3,9 C 88 % 1002,9 hPa 0,0 l/m 0 min 0 min 53 W/m 6,4 km/h (2 Bft) 97,87 %
05.12.2021 14:06 6,7 C 5,6 C 3,9 C 88 % 1002,9 hPa 0,0 l/m 0 min 0 min 45 W/m 6,4 km/h (2 Bft) 97,87 %
05.12.2021 14:08 6,7 C 5,6 C 3,9 C 88 % 1002,8 hPa 0,0 l/m 0 min 0 min 42 W/m 6,4 km/h (2 Bft) 97,87 %
05.12.2021 14:10 6,6 C 5,6 C 3,9 C 88 % 1002,9 hPa 0,0 l/m 0 min 0 min 40 W/m 6,4 km/h (2 Bft) 97,87 %
05.12.2021 14:12 6,6 C 5,6 C 3,9 C 88 % 1002,9 hPa 0,0 l/m 0 min 0 min 37 W/m 12,9 km/h (3 Bft) 97,87 %
05.12.2021 14:14 6,6 C 5,0 C 3,3 C 88 % 1002,9 hPa 0,0 l/m 0 min 0 min 33 W/m 6,4 km/h (2 Bft) 95,65 %
05.12.2021 14:16 6,6 C 5,0 C 3,3 C 88 % 1002,9 hPa 0,0 l/m 0 min 0 min 32 W/m 6,4 km/h (2 Bft) 97,87 %
05.12.2021 14:18 6,6 C 5,0 C 3,3 C 88 % 1002,9 hPa 0,0 l/m 0 min 0 min 35 W/m 6,4 km/h (2 Bft) 95,74 %
05.12.2021 14:20 6,6 C 5,0 C 3,3 C 88 % 1002,9 hPa 0,0 l/m 0 min 0 min 40 W/m 12,9 km/h (3 Bft) 97,87 %
05.12.2021 14:22 6,6 C 5,0 C 3,3 C 88 % 1002,9 hPa 0,0 l/m 0 min 0 min 41 W/m 6,4 km/h (2 Bft) 100,00 %
05.12.2021 14:24 6,5 C 5,0 C 3,3 C 88 % 1002,9 hPa 0,0 l/m 0 min 0 min 42 W/m 3,2 km/h (1 Bft) 100,00 %
05.12.2021 14:26 6,5 C 5,0 C 3,3 C 88 % 1002,9 hPa 0,0 l/m 0 min 0 min 40 W/m 3,2 km/h (1 Bft) 100,00 %
05.12.2021 14:28 6,5 C 5,0 C 3,3 C 88 % 1002,9 hPa 0,0 l/m 0 min 0 min 36 W/m 6,4 km/h (2 Bft) 100,00 %
05.12.2021 14:30 6,5 C 5,0 C 3,3 C 88 % 1003,0 hPa 0,0 l/m 0 min 0 min 31 W/m 6,4 km/h (2 Bft) 100,00 %
05.12.2021 14:32 6,5 C 5,0 C 3,3 C 88 % 1003,0 hPa 0,0 l/m 0 min 0 min 25 W/m 6,4 km/h (2 Bft) 100,00 %
05.12.2021 14:34 6,5 C 5,0 C 3,3 C 88 % 1003,0 hPa 0,0 l/m 0 min 0 min 21 W/m 9,7 km/h (2 Bft) 100,00 %
05.12.2021 14:36 6,5 C 5,0 C 3,3 C 88 % 1003,0 hPa 0,0 l/m 0 min 0 min 21 W/m 6,4 km/h (2 Bft) 100,00 %
05.12.2021 14:38 6,5 C 5,0 C 3,3 C 88 % 1003,0 hPa 0,0 l/m 0 min 0 min 20 W/m 6,4 km/h (2 Bft) 100,00 %
05.12.2021 14:40 6,5 C 5,0 C 3,3 C 88 % 1003,0 hPa 0,0 l/m 0 min 0 min 20 W/m 3,2 km/h (1 Bft) 100,00 %
05.12.2021 14:42 6,5 C 5,0 C 3,3 C 88 % 1003,1 hPa 0,0 l/m 0 min 0 min 27 W/m 3,2 km/h (1 Bft) 100,00 %
05.12.2021 14:44 6,4 C 5,0 C 3,3 C 88 % 1003,1 hPa 0,0 l/m 0 min 0 min 32 W/m 3,2 km/h (1 Bft) 100,00 %
05.12.2021 14:46 6,4 C 5,0 C 3,3 C 88 % 1003,1 hPa 0,0 l/m 0 min 0 min 37 W/m 6,4 km/h (2 Bft) 100,00 %
05.12.2021 14:48 6,5 C 5,0 C 3,3 C 88 % 1003,1 hPa 0,0 l/m 0 min 0 min 41 W/m 9,7 km/h (2 Bft) 100,00 %
05.12.2021 14:50 6,4 C 5,0 C 3,3 C 89 % 1003,1 hPa 0,0 l/m 0 min 0 min 47 W/m 6,4 km/h (2 Bft) 100,00 %
05.12.2021 14:52 6,4 C 5,6 C 3,3 C 89 % 1003,2 hPa 0,0 l/m 0 min 0 min 48 W/m 6,4 km/h (2 Bft) 100,00 %
05.12.2021 14:54 6,4 C 5,6 C 3,3 C 89 % 1003,3 hPa 0,0 l/m 0 min 0 min 43 W/m 3,2 km/h (1 Bft) 100,00 %
05.12.2021 14:56 6,4 C 5,6 C 3,3 C 89 % 1003,3 hPa 0,0 l/m 0 min 0 min 35 W/m 6,4 km/h (2 Bft) 100,00 %
05.12.2021 14:58 6,4 C 5,6 C 3,3 C 89 % 1003,3 hPa 0,0 l/m 0 min 0 min 29 W/m 9,7 km/h (2 Bft) 100,00 %
05.12.2021 15:00 6,4 C 5,6 C 3,3 C 88 % 1003,4 hPa 0,0 l/m 0 min 0 min 24 W/m 9,7 km/h (2 Bft) 97,87 %
05.12.2021 15:02 6,4 C 5,6 C 3,3 C 88 % 1003,5 hPa 0,0 l/m 0 min 0 min 19 W/m 3,2 km/h (1 Bft) 97,83 %
05.12.2021 15:04 6,4 C 5,0 C 3,3 C 88 % 1003,5 hPa 0,0 l/m 0 min 0 min 15 W/m 3,2 km/h (1 Bft) 95,74 %
05.12.2021 15:06 6,4 C 5,0 C 3,3 C 88 % 1003,5 hPa 0,0 l/m 0 min 0 min 12 W/m 3,2 km/h (1 Bft) 100,00 %
05.12.2021 15:08 6,4 C 5,0 C 3,3 C 88 % 1003,6 hPa 0,0 l/m 0 min 0 min 13 W/m 3,2 km/h (1 Bft) 100,00 %
05.12.2021 15:10 6,4 C 5,0 C 3,3 C 88 % 1003,6 hPa 0,0 l/m 0 min 0 min 15 W/m 9,7 km/h (2 Bft) 100,00 %
05.12.2021 15:12 6,4 C 5,0 C 3,3 C 88 % 1003,5 hPa 0,0 l/m 0 min 0 min 19 W/m 9,7 km/h (2 Bft) 97,87 %
05.12.2021 15:14 6,4 C 5,0 C 3,3 C 88 % 1003,6 hPa 0,0 l/m 0 min 0 min 23 W/m 3,2 km/h (1 Bft) 97,83 %
05.12.2021 15:16 6,4 C 5,0 C 3,3 C 88 % 1003,6 hPa 0,0 l/m 0 min 0 min 24 W/m 3,2 km/h (1 Bft) 96,00 %
05.12.2021 15:18 6,4 C 5,0 C 3,3 C 88 % 1003,7 hPa 0,0 l/m 0 min 0 min 20 W/m 6,4 km/h (2 Bft) 100,00 %
05.12.2021 15:20 6,4 C 5,0 C 3,3 C 88 % 1003,7 hPa 0,0 l/m 0 min 0 min 16 W/m 3,2 km/h (1 Bft) 100,00 %
05.12.2021 15:22 6,4 C 5,0 C 3,3 C 88 % 1003,8 hPa 0,0 l/m 0 min 0 min 12 W/m 3,2 km/h (1 Bft) 100,00 %
05.12.2021 15:24 6,4 C 5,0 C 3,3 C 88 % 1003,8 hPa 0,0 l/m 0 min 0 min 12 W/m 6,4 km/h (2 Bft) 100,00 %
05.12.2021 15:26 6,4 C 5,0 C 3,3 C 88 % 1003,8 hPa 0,0 l/m 0 min 0 min 12 W/m 3,2 km/h (1 Bft) 100,00 %
05.12.2021 15:28 6,3 C 5,0 C 3,3 C 88 % 1003,9 hPa 0,0 l/m 0 min 0 min 12 W/m 12,9 km/h (3 Bft) 95,74 %
05.12.2021 15:30 6,3 C 5,0 C 3,3 C 88 % 1003,9 hPa 0,0 l/m 0 min 0 min 12 W/m 12,9 km/h (3 Bft) 97,87 %
05.12.2021 15:32 6,3 C 5,0 C 3,3 C 88 % 1003,9 hPa 0,0 l/m 0 min 0 min 13 W/m 6,4 km/h (2 Bft) 93,62 %
05.12.2021 15:34 6,2 C 4,4 C 2,8 C 88 % 1004,0 hPa 0,0 l/m 0 min 0 min 13 W/m 6,4 km/h (2 Bft) 100,00 %
05.12.2021 15:36 6,2 C 4,4 C 2,8 C 89 % 1004,0 hPa 0,0 l/m 0 min 0 min 12 W/m 3,2 km/h (1 Bft) 97,87 %
05.12.2021 15:38 6,2 C 4,4 C 2,8 C 89 % 1004,1 hPa 0,0 l/m 0 min 0 min 12 W/m 3,2 km/h (1 Bft) 95,74 %
05.12.2021 15:40 6,2 C 4,4 C 2,8 C 89 % 1004,1 hPa 0,0 l/m 0 min 0 min 12 W/m 3,2 km/h (1 Bft) 93,62 %
05.12.2021 15:42 6,1 C 4,4 C 2,8 C 89 % 1004,1 hPa 0,0 l/m 0 min 0 min 12 W/m 3,2 km/h (1 Bft) 97,87 %
05.12.2021 15:44 6,1 C 4,4 C 2,8 C 89 % 1004,1 hPa 0,0 l/m 0 min 0 min 11 W/m 0,0 km/h (0 Bft) 93,62 %
05.12.2021 15:46 6,1 C 4,4 C 2,8 C 90 % 1004,1 hPa 0,0 l/m 0 min 0 min 11 W/m 0,0 km/h (0 Bft) 93,48 %
05.12.2021 15:48 6,1 C 4,4 C 2,8 C 90 % 1004,2 hPa 0,0 l/m 0 min 0 min 10 W/m 0,0 km/h (0 Bft) 95,74 %
05.12.2021 15:50 6,1 C 4,4 C 2,8 C 90 % 1004,3 hPa 0,0 l/m 0 min 0 min 9 W/m 3,2 km/h (1 Bft) 93,62 %
05.12.2021 15:52 6,1 C 4,4 C 2,8 C 90 % 1004,2 hPa 0,0 l/m 0 min 0 min 9 W/m 3,2 km/h (1 Bft) 91,49 %
05.12.2021 15:54 6,0 C 4,4 C 2,8 C 90 % 1004,3 hPa 0,0 l/m 0 min 0 min 10 W/m 3,2 km/h (1 Bft) 93,62 %
05.12.2021 15:56 5,9 C 4,4 C 2,8 C 90 % 1004,3 hPa 0,0 l/m 0 min 0 min 11 W/m 3,2 km/h (1 Bft) 93,62 %
05.12.2021 15:58 5,9 C 4,4 C 2,8 C 90 % 1004,3 hPa 0,0 l/m 0 min 0 min 13 W/m 0,0 km/h (0 Bft) 95,65 %
05.12.2021 16:00 5,9 C 4,4 C 2,8 C 90 % 1004,3 hPa 0,0 l/m 0 min 0 min 15 W/m 0,0 km/h (0 Bft) 95,74 %
05.12.2021 16:02 5,9 C 4,4 C 2,8 C 90 % 1004,3 hPa 0,0 l/m 0 min 0 min 14 W/m 0,0 km/h (0 Bft) 89,36 %
05.12.2021 16:04 5,9 C 4,4 C 2,8 C 90 % 1004,3 hPa 0,0 l/m 0 min 0 min 14 W/m 0,0 km/h (0 Bft) 93,62 %
05.12.2021 16:06 5,9 C 4,4 C 2,8 C 91 % 1004,3 hPa 0,0 l/m 0 min 0 min 13 W/m 0,0 km/h (0 Bft) 91,49 %
05.12.2021 16:08 5,8 C 4,4 C 2,8 C 91 % 1004,4 hPa 0,0 l/m 0 min 0 min 12 W/m 0,0 km/h (0 Bft) 93,62 %
05.12.2021 16:10 5,8 C 4,4 C 2,8 C 91 % 1004,4 hPa 0,0 l/m 0 min 0 min 12 W/m 0,0 km/h (0 Bft) 93,48 %
05.12.2021 16:12 5,8 C 4,4 C 2,8 C 91 % 1004,4 hPa 0,0 l/m 0 min 0 min 11 W/m 0,0 km/h (0 Bft) 93,62 %
05.12.2021 16:14 5,8 C 4,4 C 2,8 C 91 % 1004,5 hPa 0,0 l/m 0 min 0 min 10 W/m 0,0 km/h (0 Bft) 93,62 %
05.12.2021 16:16 5,8 C 4,4 C 2,8 C 91 % 1004,5 hPa 0,0 l/m 0 min 0 min 9 W/m 0,0 km/h (0 Bft) 93,62 %
05.12.2021 16:18 5,8 C 4,4 C 2,8 C 91 % 1004,5 hPa 0,0 l/m 0 min 0 min 8 W/m 0,0 km/h (0 Bft) 93,62 %
05.12.2021 16:20 5,8 C 4,4 C 2,8 C 91 % 1004,6 hPa 0,0 l/m 0 min 0 min 7 W/m 0,0 km/h (0 Bft) 93,62 %
05.12.2021 16:22 5,8 C 4,4 C 2,8 C 91 % 1004,6 hPa 0,0 l/m 0 min 0 min 7 W/m 3,2 km/h (1 Bft) 89,13 %
05.12.2021 16:24 5,8 C 4,4 C 2,8 C 91 % 1004,6 hPa 0,0 l/m 0 min 0 min 7 W/m 6,4 km/h (2 Bft) 95,74 %
05.12.2021 16:26 5,8 C 4,4 C 2,8 C 91 % 1004,6 hPa 0,0 l/m 0 min 0 min 8 W/m 6,4 km/h (2 Bft) 95,74 %
05.12.2021 16:28 5,7 C 4,4 C 2,8 C 91 % 1004,7 hPa 0,0 l/m 0 min 0 min 9 W/m 3,2 km/h (1 Bft) 100,00 %
05.12.2021 16:30 5,7 C 4,4 C 2,8 C 91 % 1004,7 hPa 0,0 l/m 0 min 0 min 9 W/m 6,4 km/h (2 Bft) 100,00 %
05.12.2021 16:32 5,7 C 4,4 C 2,8 C 91 % 1004,7 hPa 0,0 l/m 0 min 0 min 9 W/m 3,2 km/h (1 Bft) 100,00 %
05.12.2021 16:34 5,7 C 4,4 C 2,8 C 91 % 1004,7 hPa 0,0 l/m 0 min 0 min 9 W/m 3,2 km/h (1 Bft) 97,87 %
05.12.2021 16:36 5,7 C 4,4 C 2,8 C 91 % 1004,8 hPa 0,0 l/m 0 min 0 min 7 W/m 3,2 km/h (1 Bft) 100,00 %
05.12.2021 16:38 5,7 C 4,4 C 2,8 C 91 % 1004,8 hPa 0,0 l/m 0 min 0 min 5 W/m 3,2 km/h (1 Bft) 100,00 %
05.12.2021 16:40 5,7 C 4,4 C 2,8 C 91 % 1004,8 hPa 0,0 l/m 0 min 0 min 2 W/m 3,2 km/h (1 Bft) 100,00 %
05.12.2021 16:42 5,7 C 3,9 C 2,8 C 91 % 1004,8 hPa 0,0 l/m 0 min 0 min 0 W/m 3,2 km/h (1 Bft) 97,87 %
05.12.2021 16:44 5,7 C 3,9 C 2,8 C 91 % 1004,9 hPa 0,0 l/m 0 min 0 min 0 W/m 0,0 km/h (0 Bft) 100,00 %
05.12.2021 16:46 5,6 C 3,9 C 2,2 C 91 % 1004,9 hPa 0,0 l/m 0 min 0 min 0 W/m 0,0 km/h (0 Bft) 100,00 %
05.12.2021 16:48 5,6 C 3,9 C 2,2 C 91 % 1004,9 hPa 0,0 l/m 0 min 0 min 0 W/m 0,0 km/h (0 Bft) 100,00 %
05.12.2021 16:50 5,6 C 3,9 C 2,2 C 91 % 1005,0 hPa 0,0 l/m 0 min 0 min 0 W/m 0,0 km/h (0 Bft) 97,87 %
05.12.2021 16:52 5,6 C 3,9 C 2,2 C 91 % 1005,0 hPa 0,0 l/m 0 min 0 min 0 W/m 0,0 km/h (0 Bft) 97,87 %
05.12.2021 16:54 5,6 C 3,9 C 2,2 C 91 % 1005,1 hPa 0,0 l/m 0 min 0 min 0 W/m 0,0 km/h (0 Bft) 100,00 %
05.12.2021 16:56 5,6 C 3,9 C 2,2 C 91 % 1005,1 hPa 0,0 l/m 0 min 0 min 0 W/m 0,0 km/h (0 Bft) 100,00 %
05.12.2021 16:58 5,6 C 3,9 C 2,2 C 91 % 1005,1 hPa 0,0 l/m 0 min 0 min 0 W/m 0,0 km/h (0 Bft) 100,00 %
05.12.2021 17:00 5,6 C 3,9 C 2,2 C 91 % 1005,1 hPa 0,0 l/m 0 min 0 min 0 W/m 0,0 km/h (0 Bft) 97,87 %
05.12.2021 17:02 5,6 C 3,9 C 2,2 C 91 % 1005,1 hPa 0,0 l/m 0 min 0 min 0 W/m 0,0 km/h (0 Bft) 100,00 %
05.12.2021 17:04 5,6 C 3,9 C 2,2 C 91 % 1005,2 hPa 0,0 l/m 0 min 0 min 0 W/m 0,0 km/h (0 Bft) 100,00 %
05.12.2021 17:06 5,5 C 3,9 C 2,2 C 91 % 1005,2 hPa 0,0 l/m 0 min 0 min 0 W/m 0,0 km/h (0 Bft) 100,00 %
05.12.2021 17:08 5,5 C 3,9 C 2,2 C 91 % 1005,2 hPa 0,0 l/m 0 min 0 min 0 W/m 0,0 km/h (0 Bft) 100,00 %
05.12.2021 17:10 5,5 C 3,3 C 2,2 C 91 % 1005,4 hPa 0,0 l/m 0 min 0 min 0 W/m 0,0 km/h (0 Bft) 97,87 %
05.12.2021 17:12 5,5 C 3,3 C 2,2 C 91 % 1005,4 hPa 0,0 l/m 0 min 0 min 0 W/m 0,0 km/h (0 Bft) 97,87 %
05.12.2021 17:14 5,5 C 3,3 C 2,2 C 91 % 1005,4 hPa 0,0 l/m 0 min 0 min 0 W/m 0,0 km/h (0 Bft) 100,00 %
05.12.2021 17:16 5,5 C 3,3 C 2,2 C 91 % 1005,4 hPa 0,0 l/m 0 min 0 min 0 W/m 0,0 km/h (0 Bft) 100,00 %
05.12.2021 17:18 5,4 C 3,3 C 1,7 C 91 % 1005,4 hPa 0,0 l/m 0 min 0 min 0 W/m 0,0 km/h (0 Bft) 100,00 %
05.12.2021 17:20 5,4 C 3,3 C 1,7 C 91 % 1005,5 hPa 0,0 l/m 0 min 0 min 0 W/m 0,0 km/h (0 Bft) 100,00 %
05.12.2021 17:22 5,4 C 3,3 C 1,7 C 91 % 1005,5 hPa 0,0 l/m 0 min 0 min 0 W/m 0,0 km/h (0 Bft) 100,00 %
05.12.2021 17:24 5,4 C 3,3 C 1,7 C 91 % 1005,5 hPa 0,0 l/m 0 min 0 min 0 W/m 0,0 km/h (0 Bft) 100,00 %
05.12.2021 17:26 5,4 C 3,3 C 1,7 C 91 % 1005,5 hPa 0,0 l/m 0 min 0 min 0 W/m 0,0 km/h (0 Bft) 100,00 %
05.12.2021 17:28 5,4 C 3,3 C 1,7 C 91 % 1005,6 hPa 0,0 l/m 0 min 0 min 0 W/m 0,0 km/h (0 Bft) 100,00 %
05.12.2021 17:30 5,4 C 3,3 C 1,7 C 91 % 1005,6 hPa 0,0 l/m 0 min 0 min 0 W/m 0,0 km/h (0 Bft) 100,00 %
05.12.2021 17:32 5,3 C 3,3 C 1,7 C 91 % 1005,7 hPa 0,0 l/m 0 min 0 min 0 W/m 0,0 km/h (0 Bft) 97,83 %
05.12.2021 17:34 5,3 C 3,3 C 1,7 C 91 % 1005,7 hPa 0,0 l/m 0 min 0 min 0 W/m 0,0 km/h (0 Bft) 97,87 %
05.12.2021 17:36 5,3 C 3,3 C 1,7 C 91 % 1005,7 hPa 0,0 l/m 0 min 0 min 0 W/m 0,0 km/h (0 Bft) 100,00 %
05.12.2021 17:38 5,3 C 3,3 C 1,7 C 91 % 1005,7 hPa 0,0 l/m 0 min 0 min 0 W/m 0,0 km/h (0 Bft) 97,87 %
05.12.2021 17:40 5,3 C 3,3 C 1,7 C 91 % 1005,8 hPa 0,0 l/m 0 min 0 min 0 W/m 0,0 km/h (0 Bft) 100,00 %
05.12.2021 17:42 5,3 C 3,3 C 1,7 C 91 % 1005,9 hPa 0,0 l/m 0 min 0 min 0 W/m 0,0 km/h (0 Bft) 97,87 %
05.12.2021 17:44 5,2 C 3,3 C 1,7 C 91 % 1005,9 hPa 0,0 l/m 0 min 0 min 0 W/m 0,0 km/h (0 Bft) 97,83 %
05.12.2021 17:46 5,2 C 3,3 C 1,7 C 91 % 1005,9 hPa 0,0 l/m 0 min 0 min 0 W/m 0,0 km/h (0 Bft) 97,87 %
05.12.2021 17:48 5,2 C 3,3 C 1,7 C 91 % 1006,0 hPa 0,0 l/m 0 min 0 min 0 W/m 0,0 km/h (0 Bft) 97,87 %
05.12.2021 17:50 5,2 C 3,3 C 1,7 C 91 % 1006,0 hPa 0,0 l/m 0 min 0 min 0 W/m 0,0 km/h (0 Bft) 95,74 %
05.12.2021 17:52 5,2 C 3,3 C 1,7 C 91 % 1006,1 hPa 0,0 l/m 0 min 0 min 0 W/m 0,0 km/h (0 Bft) 97,87 %
05.12.2021 17:54 5,2 C 3,3 C 1,7 C 91 % 1006,1 hPa 0,0 l/m 0 min 0 min 0 W/m 0,0 km/h (0 Bft) 97,87 %
05.12.2021 17:56 5,2 C 3,3 C 1,7 C 91 % 1006,1 hPa 0,0 l/m 0 min 0 min 0 W/m 0,0 km/h (0 Bft) 97,83 %
05.12.2021 17:58 5,2 C 3,3 C 1,7 C 91 % 1006,2 hPa 0,0 l/m 0 min 0 min 0 W/m 0,0 km/h (0 Bft) 95,74 %
05.12.2021 18:00 5,1 C 3,3 C 2,2 C 91 % 1006,2 hPa 0,0 l/m 0 min 0 min 0 W/m 0,0 km/h (0 Bft) 97,87 %
05.12.2021 18:02 5,1 C 3,3 C 2,2 C 91 % 1006,2 hPa 0,0 l/m 0 min 0 min 0 W/m 0,0 km/h (0 Bft) 95,74 %
05.12.2021 18:04 5,1 C 3,3 C 2,2 C 91 % 1006,2 hPa 0,0 l/m 0 min 0 min 0 W/m 0,0 km/h (0 Bft) 97,87 %
05.12.2021 18:06 5,1 C 3,3 C 2,2 C 92 % 1006,2 hPa 0,0 l/m 0 min 0 min 0 W/m 0,0 km/h (0 Bft) 97,87 %
05.12.2021 18:08 5,1 C 3,3 C 2,2 C 92 % 1006,3 hPa 0,0 l/m 0 min 0 min 0 W/m 0,0 km/h (0 Bft) 95,65 %
05.12.2021 18:10 5,1 C 3,3 C 2,2 C 92 % 1006,3 hPa 0,0 l/m 0 min 0 min 0 W/m 0,0 km/h (0 Bft) 95,74 %
05.12.2021 18:12 5,1 C 3,3 C 2,2 C 92 % 1006,3 hPa 0,0 l/m 0 min 0 min 0 W/m 0,0 km/h (0 Bft) 97,87 %
05.12.2021 18:14 5,1 C 3,3 C 2,2 C 92 % 1006,4 hPa 0,0 l/m 0 min 0 min 0 W/m 0,0 km/h (0 Bft) 95,74 %
05.12.2021 18:16 5,1 C 3,3 C 2,2 C 92 % 1006,3 hPa 0,0 l/m 0 min 0 min 0 W/m 0,0 km/h (0 Bft) 97,87 %
05.12.2021 18:18 5,1 C 3,3 C 2,2 C 92 % 1006,4 hPa 0,0 l/m 0 min 0 min 0 W/m 0,0 km/h (0 Bft) 95,74 %
05.12.2021 18:20 5,1 C 3,3 C 2,2 C 92 % 1006,4 hPa 0,0 l/m 0 min 0 min 0 W/m 0,0 km/h (0 Bft) 97,83 %
05.12.2021 18:22 5,0 C 3,3 C 2,2 C 92 % 1006,4 hPa 0,0 l/m 0 min 0 min 0 W/m 0,0 km/h (0 Bft) 97,87 %
05.12.2021 18:24 5,0 C 3,3 C 2,2 C 92 % 1006,4 hPa 0,0 l/m 0 min 0 min 0 W/m 3,2 km/h (1 Bft) 95,74 %
05.12.2021 18:26 5,0 C 3,3 C 2,2 C 92 % 1006,5 hPa 0,0 l/m 0 min 0 min 0 W/m 3,2 km/h (1 Bft) 57,45 %
05.12.2021 18:28 5,0 C 3,3 C 2,2 C 92 % 1006,4 hPa 0,0 l/m 0 min 0 min 0 W/m 0,0 km/h (0 Bft) 97,87 %
05.12.2021 18:30 5,0 C 3,3 C 2,2 C 92 % 1006,5 hPa 0,0 l/m 0 min 0 min 0 W/m 0,0 km/h (0 Bft) 97,87 %
05.12.2021 18:32 5,0 C 3,3 C 2,2 C 92 % 1006,5 hPa 0,0 l/m 0 min 0 min 0 W/m 0,0 km/h (0 Bft) 97,83 %
05.12.2021 18:34 5,0 C 3,3 C 2,2 C 92 % 1006,5 hPa 0,0 l/m 0 min 0 min 0 W/m 0,0 km/h (0 Bft) 97,87 %
05.12.2021 18:36 5,0 C 3,3 C 2,2 C 92 % 1006,6 hPa 0,0 l/m 0 min 0 min 0 W/m 0,0 km/h (0 Bft) 97,87 %
05.12.2021 18:38 5,0 C 3,3 C 2,2 C 92 % 1006,6 hPa 0,0 l/m 0 min 0 min 0 W/m 0,0 km/h (0 Bft) 95,74 %
05.12.2021 18:40 5,1 C 3,3 C 2,2 C 92 % 1006,6 hPa 0,0 l/m 0 min 0 min 0 W/m 0,0 km/h (0 Bft) 95,74 %
05.12.2021 18:42 5,0 C 3,9 C 2,2 C 92 % 1006,7 hPa 0,0 l/m 0 min 0 min 0 W/m 0,0 km/h (0 Bft) 95,65 %
05.12.2021 18:44 5,0 C 3,9 C 2,2 C 92 % 1006,7 hPa 0,0 l/m 0 min 0 min 0 W/m 0,0 km/h (0 Bft) 95,74 %
05.12.2021 18:46 5,0 C 3,9 C 2,2 C 92 % 1006,7 hPa 0,0 l/m 0 min 0 min 0 W/m 3,2 km/h (1 Bft) 95,74 %
05.12.2021 18:48 5,0 C 3,9 C 2,2 C 92 % 1006,8 hPa 0,0 l/m 0 min 0 min 0 W/m 3,2 km/h (1 Bft) 95,74 %
05.12.2021 18:50 5,1 C 3,9 C 2,2 C 93 % 1006,8 hPa 0,0 l/m 0 min 2 min 0 W/m 3,2 km/h (1 Bft) 97,87 %
05.12.2021 18:52 5,1 C 3,9 C 2,2 C 93 % 1006,8 hPa 0,0 l/m 0 min 0 min 0 W/m 0,0 km/h (0 Bft) 97,87 %
05.12.2021 18:54 5,1 C 3,9 C 2,2 C 93 % 1006,9 hPa 0,0 l/m 0 min 2 min 0 W/m 0,0 km/h (0 Bft) 97,83 %
05.12.2021 18:56 5,1 C 3,9 C 2,2 C 93 % 1007,0 hPa 0,0 l/m 0 min 0 min 0 W/m 3,2 km/h (1 Bft) 95,74 %
05.12.2021 18:58 5,1 C 3,9 C 2,2 C 93 % 1007,0 hPa 0,0 l/m 0 min 2 min 0 W/m 0,0 km/h (0 Bft) 97,87 %
05.12.2021 19:00 5,2 C 3,9 C 2,2 C 93 % 1007,0 hPa 0,0 l/m 0 min 2 min 0 W/m 0,0 km/h (0 Bft) 97,87 %
05.12.2021 19:02 5,2 C 3,9 C 2,2 C 93 % 1007,1 hPa 0,0 l/m 0 min 2 min 0 W/m 0,0 km/h (0 Bft) 97,62 %
05.12.2021 19:04 5,2 C 3,9 C 2,2 C 93 % 1007,1 hPa 0,0 l/m 0 min 2 min 0 W/m 0,0 km/h (0 Bft) 97,87 %
05.12.2021 19:06 5,2 C 3,9 C 2,2 C 93 % 1007,1 hPa 0,0 l/m 0 min 2 min 0 W/m 0,0 km/h (0 Bft) 97,87 %
05.12.2021 19:08 5,2 C 3,9 C 2,2 C 94 % 1007,1 hPa 0,0 l/m 0 min 2 min 0 W/m 0,0 km/h (0 Bft) 97,87 %
05.12.2021 19:10 5,2 C 3,9 C 2,2 C 94 % 1007,1 hPa 0,0 l/m 0 min 2 min 0 W/m 0,0 km/h (0 Bft) 97,87 %
05.12.2021 19:12 5,2 C 3,9 C 2,2 C 94 % 1007,1 hPa 0,0 l/m 0 min 0 min 0 W/m 0,0 km/h (0 Bft) 97,83 %
05.12.2021 19:14 5,2 C 3,9 C 2,2 C 94 % 1007,1 hPa 0,0 l/m 0 min 2 min 0 W/m 0,0 km/h (0 Bft) 93,62 %
05.12.2021 19:16 5,2 C 3,9 C 2,2 C 94 % 1007,2 hPa 0,0 l/m 0 min 0 min 0 W/m 0,0 km/h (0 Bft) 97,87 %
05.12.2021 19:18 5,2 C 3,9 C 2,2 C 94 % 1007,2 hPa 0,0 l/m 0 min 0 min 0 W/m 0,0 km/h (0 Bft) 97,87 %
05.12.2021 19:20 5,2 C 3,9 C 2,2 C 94 % 1007,2 hPa 0,0 l/m 0 min 2 min 0 W/m 0,0 km/h (0 Bft) 97,87 %
05.12.2021 19:22 5,2 C 3,9 C 2,2 C 94 % 1007,3 hPa 0,0 l/m 0 min 0 min 0 W/m 0,0 km/h (0 Bft) 95,65 %
05.12.2021 19:24 5,2 C 3,9 C 2,2 C 94 % 1007,3 hPa 0,0 l/m 0 min 2 min 0 W/m 3,2 km/h (1 Bft) 97,87 %
05.12.2021 19:26 5,2 C 3,9 C 2,2 C 94 % 1007,4 hPa 0,2 l/m 0 min 2 min 0 W/m 0,0 km/h (0 Bft) 93,62 %
05.12.2021 19:28 5,2 C 3,9 C 2,2 C 94 % 1007,4 hPa 0,0 l/m 0 min 2 min 0 W/m 3,2 km/h (1 Bft) 97,87 %
05.12.2021 19:30 5,2 C 3,9 C 2,2 C 94 % 1007,5 hPa 0,0 l/m 0 min 2 min 0 W/m 0,0 km/h (0 Bft) 97,87 %
05.12.2021 19:32 5,2 C 3,9 C 2,2 C 94 % 1007,5 hPa 0,0 l/m 0 min 2 min 0 W/m 0,0 km/h (0 Bft) 97,92 %
05.12.2021 19:34 5,2 C 3,9 C 2,2 C 94 % 1007,5 hPa 0,0 l/m 0 min 2 min 0 W/m 0,0 km/h (0 Bft) 100,00 %
05.12.2021 19:36 5,2 C 3,3 C 2,2 C 94 % 1007,6 hPa 0,0 l/m 0 min 2 min 0 W/m 3,2 km/h (1 Bft) 95,74 %
05.12.2021 19:38 5,2 C 3,3 C 2,2 C 94 % 1007,6 hPa 0,0 l/m 0 min 2 min 0 W/m 3,2 km/h (1 Bft) 97,87 %
05.12.2021 19:40 5,2 C 3,3 C 2,2 C 94 % 1007,6 hPa 0,0 l/m 0 min 2 min 0 W/m 0,0 km/h (0 Bft) 97,87 %
05.12.2021 19:42 5,2 C 3,3 C 2,2 C 94 % 1007,6 hPa 0,0 l/m 0 min 2 min 0 W/m 0,0 km/h (0 Bft) 95,74 %
05.12.2021 19:44 5,2 C 3,3 C 2,2 C 94 % 1007,7 hPa 0,0 l/m 0 min 2 min 0 W/m 0,0 km/h (0 Bft) 97,87 %
05.12.2021 19:46 5,2 C 3,3 C 2,2 C 94 % 1007,7 hPa 0,0 l/m 0 min 2 min 0 W/m 0,0 km/h (0 Bft) 97,83 %
05.12.2021 19:48 5,2 C 3,3 C 2,2 C 94 % 1007,7 hPa 0,0 l/m 0 min 2 min 0 W/m 3,2 km/h (1 Bft) 97,87 %
05.12.2021 19:50 5,2 C 3,3 C 1,7 C 95 % 1007,7 hPa 0,0 l/m 0 min 2 min 0 W/m 0,0 km/h (0 Bft) 95,74 %
05.12.2021 19:52 5,2 C 3,3 C 1,7 C 95 % 1007,8 hPa 0,0 l/m 0 min 2 min 0 W/m 0,0 km/h (0 Bft) 95,74 %
05.12.2021 19:54 5,2 C 3,3 C 1,7 C 95 % 1007,8 hPa 0,0 l/m 0 min 2 min 0 W/m 0,0 km/h (0 Bft) 97,87 %
05.12.2021 19:56 5,2 C 3,3 C 1,7 C 95 % 1007,8 hPa 0,0 l/m 0 min 0 min 0 W/m 0,0 km/h (0 Bft) 95,65 %
05.12.2021 19:58 5,2 C 3,3 C 1,7 C 95 % 1007,9 hPa 0,0 l/m 0 min 0 min 0 W/m 0,0 km/h (0 Bft) 97,87 %
05.12.2021 20:00 5,1 C 3,3 C 1,7 C 95 % 1007,9 hPa 0,0 l/m 0 min 2 min 0 W/m 0,0 km/h (0 Bft) 97,87 %
05.12.2021 20:02 5,1 C 3,3 C 1,7 C 95 % 1007,9 hPa 0,0 l/m 0 min 0 min 0 W/m 0,0 km/h (0 Bft) 97,87 %
05.12.2021 20:04 5,1 C 3,3 C 1,7 C 95 % 1007,9 hPa 0,0 l/m 0 min 2 min 0 W/m 0,0 km/h (0 Bft) 97,87 %
05.12.2021 20:06 5,1 C 3,3 C 1,7 C 95 % 1007,9 hPa 0,0 l/m 0 min 2 min 0 W/m 3,2 km/h (1 Bft) 100,00 %
05.12.2021 20:08 5,1 C 3,3 C 1,7 C 95 % 1007,9 hPa 0,0 l/m 0 min 2 min 0 W/m 0,0 km/h (0 Bft) 100,00 %
05.12.2021 20:10 5,1 C 3,3 C 1,7 C 95 % 1008,0 hPa 0,0 l/m 0 min 0 min 0 W/m 0,0 km/h (0 Bft) 100,00 %
05.12.2021 20:12 5,1 C 3,3 C 1,7 C 95 % 1008,0 hPa 0,0 l/m 0 min 0 min 0 W/m 3,2 km/h (1 Bft) 100,00 %
05.12.2021 20:14 5,1 C 3,3 C 1,7 C 95 % 1008,0 hPa 0,0 l/m 0 min 2 min 0 W/m 6,4 km/h (2 Bft) 97,87 %
05.12.2021 20:16 5,1 C 3,3 C 1,7 C 95 % 1008,0 hPa 0,0 l/m 0 min 2 min 0 W/m 3,2 km/h (1 Bft) 97,87 %
05.12.2021 20:18 5,0 C 3,3 C 1,7 C 95 % 1008,1 hPa 0,0 l/m 0 min 2 min 0 W/m 3,2 km/h (1 Bft) 100,00 %
05.12.2021 20:20 5,0 C 3,3 C 1,7 C 95 % 1008,1 hPa 0,0 l/m 0 min 0 min 0 W/m 0,0 km/h (0 Bft) 100,00 %
05.12.2021 20:22 5,0 C 3,3 C 1,7 C 95 % 1008,1 hPa 0,0 l/m 0 min 0 min 0 W/m 3,2 km/h (1 Bft) 100,00 %
05.12.2021 20:24 5,0 C 3,3 C 1,7 C 95 % 1008,2 hPa 0,0 l/m 0 min 0 min 0 W/m 0,0 km/h (0 Bft) 97,87 %
05.12.2021 20:26 5,0 C 3,3 C 1,7 C 95 % 1008,2 hPa 0,0 l/m 0 min 2 min 0 W/m 0,0 km/h (0 Bft) 80,85 %
05.12.2021 20:28 5,0 C 3,3 C 1,7 C 95 % 1008,3 hPa 0,0 l/m 0 min 0 min 0 W/m 0,0 km/h (0 Bft) 69,05 %
05.12.2021 20:30 4,9 C 3,3 C 1,7 C 95 % 1008,3 hPa 0,0 l/m 0 min 2 min 0 W/m 0,0 km/h (0 Bft) 97,87 %
05.12.2021 20:32 4,9 C 3,3 C 1,7 C 95 % 1008,3 hPa 0,2 l/m 0 min 0 min 0 W/m 3,2 km/h (1 Bft) 97,83 %
05.12.2021 20:34 4,9 C 3,3 C 1,7 C 95 % 1008,3 hPa 0,0 l/m 0 min 0 min 0 W/m 0,0 km/h (0 Bft) 97,87 %
05.12.2021 20:36 4,9 C 3,3 C 1,7 C 95 % 1008,4 hPa 0,0 l/m 0 min 0 min 0 W/m 3,2 km/h (1 Bft) 95,74 %
05.12.2021 20:38 4,9 C 3,3 C 1,7 C 95 % 1008,4 hPa 0,0 l/m 0 min 0 min 0 W/m 0,0 km/h (0 Bft) 97,87 %
05.12.2021 20:40 4,9 C 3,3 C 1,7 C 95 % 1008,4 hPa 0,0 l/m 0 min 2 min 0 W/m 0,0 km/h (0 Bft) 95,74 %
05.12.2021 20:42 4,9 C 3,3 C 1,7 C 95 % 1008,4 hPa 0,0 l/m 0 min 0 min 0 W/m 3,2 km/h (1 Bft) 97,87 %
05.12.2021 20:44 4,9 C 3,3 C 1,7 C 95 % 1008,4 hPa 0,0 l/m 0 min 0 min 0 W/m 3,2 km/h (1 Bft) 97,87 %
05.12.2021 20:46 4,9 C 3,3 C 1,7 C 95 % 1008,4 hPa 0,0 l/m 0 min 2 min 0 W/m 3,2 km/h (1 Bft) 97,83 %
05.12.2021 20:48 4,8 C 3,3 C 1,7 C 95 % 1008,5 hPa 0,0 l/m 0 min 2 min 0 W/m 3,2 km/h (1 Bft) 97,87 %
05.12.2021 20:50 4,8 C 3,3 C 1,7 C 95 % 1008,5 hPa 0,0 l/m 0 min 2 min 0 W/m 3,2 km/h (1 Bft) 97,87 %
05.12.2021 20:52 4,8 C 3,3 C 1,7 C 95 % 1008,5 hPa 0,0 l/m 0 min 2 min 0 W/m 3,2 km/h (1 Bft) 97,87 %
05.12.2021 20:54 4,8 C 3,3 C 1,7 C 95 % 1008,5 hPa 0,0 l/m 0 min 2 min 0 W/m 3,2 km/h (1 Bft) 97,87 %
05.12.2021 20:56 4,8 C 3,3 C 1,7 C 95 % 1008,5 hPa 0,0 l/m 0 min 2 min 0 W/m 3,2 km/h (1 Bft) 95,65 %
05.12.2021 20:58 4,8 C 3,3 C 1,7 C 95 % 1008,5 hPa 0,0 l/m 0 min 2 min 0 W/m 3,2 km/h (1 Bft) 95,74 %
05.12.2021 21:00 4,8 C 3,3 C 1,7 C 95 % 1008,6 hPa 0,0 l/m 0 min 2 min 0 W/m 3,2 km/h (1 Bft) 97,87 %
05.12.2021 21:02 4,8 C 3,3 C 1,7 C 95 % 1008,6 hPa 0,0 l/m 0 min 0 min 0 W/m 3,2 km/h (1 Bft) 97,87 %
05.12.2021 21:04 4,8 C 3,3 C 1,7 C 95 % 1008,6 hPa 0,0 l/m 0 min 0 min 0 W/m 3,2 km/h (1 Bft) 97,87 %
05.12.2021 21:06 4,8 C 3,3 C 1,7 C 95 % 1008,6 hPa 0,0 l/m 0 min 0 min 0 W/m 0,0 km/h (0 Bft) 95,74 %
05.12.2021 21:08 4,7 C 3,3 C 1,7 C 95 % 1008,6 hPa 0,0 l/m 0 min 0 min 0 W/m 3,2 km/h (1 Bft) 100,00 %
05.12.2021 21:10 4,7 C 3,3 C 1,7 C 95 % 1008,6 hPa 0,0 l/m 0 min 0 min 0 W/m 0,0 km/h (0 Bft) 100,00 %
05.12.2021 21:12 4,7 C 3,3 C 1,7 C 95 % 1008,6 hPa 0,0 l/m 0 min 0 min 0 W/m 0,0 km/h (0 Bft) 100,00 %
05.12.2021 21:14 4,7 C 3,3 C 1,7 C 95 % 1008,7 hPa 0,0 l/m 0 min 0 min 0 W/m 0,0 km/h (0 Bft) 97,87 %
05.12.2021 21:16 4,7 C 3,3 C 1,7 C 95 % 1008,7 hPa 0,0 l/m 0 min 0 min 0 W/m 0,0 km/h (0 Bft) 100,00 %
05.12.2021 21:18 4,7 C 3,3 C 1,7 C 96 % 1008,8 hPa 0,0 l/m 0 min 0 min 0 W/m 0,0 km/h (0 Bft) 97,87 %
05.12.2021 21:20 4,7 C 3,3 C 1,7 C 96 % 1008,8 hPa 0,0 l/m 0 min 0 min 0 W/m 0,0 km/h (0 Bft) 100,00 %
05.12.2021 21:22 4,7 C 3,3 C 1,7 C 96 % 1008,9 hPa 0,0 l/m 0 min 0 min 0 W/m 0,0 km/h (0 Bft) 100,00 %
05.12.2021 21:24 4,7 C 3,3 C 1,7 C 96 % 1008,9 hPa 0,0 l/m 0 min 0 min 0 W/m 0,0 km/h (0 Bft) 97,87 %
05.12.2021 21:26 4,7 C 3,3 C 1,7 C 96 % 1008,9 hPa 0,0 l/m 0 min 0 min 0 W/m 0,0 km/h (0 Bft) 97,87 %
05.12.2021 21:28 4,7 C 3,3 C 1,7 C 96 % 1008,9 hPa 0,0 l/m 0 min 2 min 0 W/m 0,0 km/h (0 Bft) 97,87 %
05.12.2021 21:30 4,7 C 3,3 C 1,7 C 96 % 1009,0 hPa 0,0 l/m 0 min 2 min 0 W/m 0,0 km/h (0 Bft) 97,87 %
05.12.2021 21:32 4,7 C 3,3 C 1,7 C 96 % 1009,0 hPa 0,0 l/m 0 min 2 min 0 W/m 0,0 km/h (0 Bft) 97,83 %
05.12.2021 21:34 4,7 C 3,3 C 1,7 C 96 % 1009,0 hPa 0,0 l/m 0 min 0 min 0 W/m 0,0 km/h (0 Bft) 97,87 %
05.12.2021 21:36 4,6 C 3,3 C 1,7 C 96 % 1009,0 hPa 0,0 l/m 0 min 2 min 0 W/m 0,0 km/h (0 Bft) 97,87 %
05.12.2021 21:38 4,6 C 3,3 C 1,7 C 96 % 1009,0 hPa 0,0 l/m 0 min 0 min 0 W/m 0,0 km/h (0 Bft) 97,87 %
05.12.2021 21:40 4,6 C 3,3 C 1,7 C 96 % 1009,0 hPa 0,0 l/m 0 min 0 min 0 W/m 0,0 km/h (0 Bft) 97,87 %
05.12.2021 21:42 4,6 C 3,3 C 1,7 C 96 % 1009,1 hPa 0,0 l/m 0 min 2 min 0 W/m 0,0 km/h (0 Bft) 97,87 %
05.12.2021 21:44 4,6 C 3,3 C 1,7 C 96 % 1009,1 hPa 0,0 l/m 0 min 2 min 0 W/m 0,0 km/h (0 Bft) 97,83 %
05.12.2021 21:46 4,6 C 3,3 C 1,7 C 96 % 1009,1 hPa 0,0 l/m 0 min 0 min 0 W/m 0,0 km/h (0 Bft) 97,87 %
05.12.2021 21:48 4,6 C 3,3 C 1,7 C 96 % 1009,1 hPa 0,0 l/m 0 min 0 min 0 W/m 0,0 km/h (0 Bft) 95,74 %
05.12.2021 21:50 4,6 C 2,8 C 1,7 C 96 % 1009,2 hPa 0,0 l/m 0 min 0 min 0 W/m 0,0 km/h (0 Bft) 93,62 %
05.12.2021 21:52 4,6 C 2,8 C 1,7 C 96 % 1009,2 hPa 0,0 l/m 0 min 0 min 0 W/m 0,0 km/h (0 Bft) 95,74 %
05.12.2021 21:54 4,6 C 2,8 C 1,7 C 96 % 1009,2 hPa 0,0 l/m 0 min 0 min 0 W/m 0,0 km/h (0 Bft) 95,65 %
05.12.2021 21:56 4,6 C 2,8 C 1,7 C 96 % 1009,3 hPa 0,0 l/m 0 min 0 min 0 W/m 0,0 km/h (0 Bft) 95,74 %
05.12.2021 21:58 4,6 C 3,3 C 1,7 C 96 % 1009,4 hPa 0,0 l/m 0 min 0 min 0 W/m 0,0 km/h (0 Bft) 95,74 %
05.12.2021 22:00 4,6 C 3,3 C 1,7 C 96 % 1009,3 hPa 0,0 l/m 0 min 0 min 0 W/m 0,0 km/h (0 Bft) 97,87 %
05.12.2021 22:02 4,6 C 3,3 C 1,7 C 96 % 1009,4 hPa 0,0 l/m 0 min 0 min 0 W/m 0,0 km/h (0 Bft) 95,74 %
05.12.2021 22:04 4,6 C 3,3 C 1,7 C 96 % 1009,4 hPa 0,0 l/m 0 min 0 min 0 W/m 0,0 km/h (0 Bft) 97,87 %
05.12.2021 22:06 4,6 C 3,3 C 1,7 C 96 % 1009,5 hPa 0,0 l/m 0 min 0 min 0 W/m 0,0 km/h (0 Bft) 97,83 %
05.12.2021 22:08 4,6 C 3,3 C 1,7 C 96 % 1009,5 hPa 0,0 l/m 0 min 0 min 0 W/m 0,0 km/h (0 Bft) 95,74 %
05.12.2021 22:10 4,6 C 3,3 C 1,7 C 96 % 1009,5 hPa 0,0 l/m 0 min 0 min 0 W/m 0,0 km/h (0 Bft) 97,87 %
05.12.2021 22:12 4,6 C 3,3 C 1,7 C 96 % 1009,6 hPa 0,0 l/m 0 min 0 min 0 W/m 0,0 km/h (0 Bft) 97,87 %
05.12.2021 22:14 4,6 C 3,3 C 1,7 C 96 % 1009,6 hPa 0,0 l/m 0 min 0 min 0 W/m 0,0 km/h (0 Bft) 97,87 %
05.12.2021 22:16 4,6 C 3,3 C 1,7 C 96 % 1009,6 hPa 0,0 l/m 0 min 0 min 0 W/m 0,0 km/h (0 Bft) 97,87 %
05.12.2021 22:18 4,6 C 3,3 C 1,7 C 96 % 1009,7 hPa 0,0 l/m 0 min 0 min 0 W/m 6,4 km/h (2 Bft) 97,83 %
05.12.2021 22:20 4,6 C 3,3 C 1,7 C 96 % 1009,7 hPa 0,0 l/m 0 min 0 min 0 W/m 3,2 km/h (1 Bft) 97,87 %
05.12.2021 22:22 4,6 C 3,3 C 2,2 C 96 % 1009,7 hPa 0,0 l/m 0 min 0 min 0 W/m 3,2 km/h (1 Bft) 97,87 %
05.12.2021 22:24 4,6 C 3,3 C 2,2 C 96 % 1009,7 hPa 0,0 l/m 0 min 0 min 0 W/m 3,2 km/h (1 Bft) 95,74 %
05.12.2021 22:26 4,6 C 3,3 C 1,7 C 96 % 1009,7 hPa 0,0 l/m 0 min 0 min 0 W/m 3,2 km/h (1 Bft) 97,87 %
05.12.2021 22:28 4,6 C 3,3 C 1,7 C 96 % 1009,7 hPa 0,0 l/m 0 min 0 min 0 W/m 3,2 km/h (1 Bft) 97,87 %
05.12.2021 22:30 4,6 C 3,3 C 1,7 C 96 % 1009,8 hPa 0,0 l/m 0 min 0 min 0 W/m 3,2 km/h (1 Bft) 95,65 %
05.12.2021 22:32 4,6 C 3,3 C 1,7 C 96 % 1009,8 hPa 0,0 l/m 0 min 0 min 0 W/m 3,2 km/h (1 Bft) 97,92 %
05.12.2021 22:34 4,6 C 3,3 C 1,7 C 96 % 1009,8 hPa 0,0 l/m 0 min 0 min 0 W/m 3,2 km/h (1 Bft) 97,87 %
05.12.2021 22:36 4,6 C 3,3 C 1,7 C 96 % 1009,8 hPa 0,0 l/m 0 min 0 min 0 W/m 3,2 km/h (1 Bft) 97,87 %
05.12.2021 22:38 4,6 C 3,3 C 1,7 C 96 % 1009,8 hPa 0,0 l/m 0 min 0 min 0 W/m 3,2 km/h (1 Bft) 97,87 %
05.12.2021 22:40 4,6 C 3,3 C 1,7 C 96 % 1009,9 hPa 0,0 l/m 0 min 0 min 0 W/m 6,4 km/h (2 Bft) 100,00 %
05.12.2021 22:42 4,6 C 3,3 C 1,7 C 96 % 1009,8 hPa 0,0 l/m 0 min 0 min 0 W/m 3,2 km/h (1 Bft) 97,83 %
05.12.2021 22:44 4,6 C 3,3 C 1,7 C 96 % 1009,9 hPa 0,0 l/m 0 min 0 min 0 W/m 6,4 km/h (2 Bft) 95,74 %
05.12.2021 22:46 4,6 C 3,3 C 1,7 C 96 % 1009,9 hPa 0,0 l/m 0 min 0 min 0 W/m 3,2 km/h (1 Bft) 100,00 %
05.12.2021 22:48 4,5 C 3,3 C 1,7 C 96 % 1009,9 hPa 0,0 l/m 0 min 0 min 0 W/m 3,2 km/h (1 Bft) 100,00 %
05.12.2021 22:50 4,6 C 3,3 C 1,7 C 96 % 1009,9 hPa 0,0 l/m 0 min 0 min 0 W/m 3,2 km/h (1 Bft) 95,74 %
05.12.2021 22:52 4,6 C 3,3 C 2,2 C 96 % 1010,0 hPa 0,0 l/m 0 min 0 min 0 W/m 3,2 km/h (1 Bft) 95,74 %
05.12.2021 22:54 4,5 C 3,3 C 2,2 C 96 % 1010,0 hPa 0,0 l/m 0 min 0 min 0 W/m 3,2 km/h (1 Bft) 97,83 %
05.12.2021 22:56 4,5 C 3,3 C 2,2 C 96 % 1010,0 hPa 0,0 l/m 0 min 2 min 0 W/m 6,4 km/h (2 Bft) 97,87 %
05.12.2021 22:58 4,5 C 3,3 C 2,2 C 96 % 1010,0 hPa 0,0 l/m 0 min 2 min 0 W/m 3,2 km/h (1 Bft) 97,87 %
05.12.2021 23:00 4,5 C 3,3 C 2,2 C 96 % 1010,1 hPa 0,2 l/m 0 min 2 min 0 W/m 3,2 km/h (1 Bft) 93,62 %
05.12.2021 23:02 4,5 C 3,3 C 2,2 C 97 % 1010,1 hPa 0,0 l/m 0 min 0 min 0 W/m 0,0 km/h (0 Bft) 97,87 %
05.12.2021 23:04 4,5 C 3,3 C 2,2 C 97 % 1010,2 hPa 0,0 l/m 0 min 0 min 0 W/m 3,2 km/h (1 Bft) 97,87 %
05.12.2021 23:06 4,6 C 3,3 C 2,2 C 97 % 1010,2 hPa 0,0 l/m 0 min 0 min 0 W/m 3,2 km/h (1 Bft) 97,83 %
05.12.2021 23:08 4,6 C 3,3 C 2,2 C 97 % 1010,2 hPa 0,0 l/m 0 min 2 min 0 W/m 0,0 km/h (0 Bft) 97,87 %
05.12.2021 23:10 4,6 C 3,3 C 2,2 C 97 % 1010,2 hPa 0,0 l/m 0 min 2 min 0 W/m 3,2 km/h (1 Bft) 97,87 %
05.12.2021 23:12 4,6 C 3,3 C 2,2 C 97 % 1010,2 hPa 0,0 l/m 0 min 2 min 0 W/m 3,2 km/h (1 Bft) 95,74 %
05.12.2021 23:14 4,6 C 3,3 C 2,2 C 97 % 1010,3 hPa 0,0 l/m 0 min 0 min 0 W/m 0,0 km/h (0 Bft) 97,87 %
05.12.2021 23:16 4,6 C 3,3 C 2,2 C 97 % 1010,3 hPa 0,0 l/m 0 min 0 min 0 W/m 0,0 km/h (0 Bft) 95,74 %
05.12.2021 23:18 4,6 C 3,3 C 2,2 C 97 % 1010,3 hPa 0,0 l/m 0 min 0 min 0 W/m 0,0 km/h (0 Bft) 95,74 %
05.12.2021 23:20 4,6 C 3,3 C 2,2 C 97 % 1010,3 hPa 0,0 l/m 0 min 0 min 0 W/m 0,0 km/h (0 Bft) 93,62 %
05.12.2021 23:22 4,6 C 3,3 C 2,2 C 97 % 1010,4 hPa 0,0 l/m 0 min 2 min 0 W/m 0,0 km/h (0 Bft) 95,74 %
05.12.2021 23:24 4,6 C 3,3 C 2,2 C 97 % 1010,4 hPa 0,0 l/m 0 min 2 min 0 W/m 0,0 km/h (0 Bft) 95,74 %
05.12.2021 23:26 4,6 C 3,3 C 2,2 C 97 % 1010,5 hPa 0,0 l/m 0 min 0 min 0 W/m 0,0 km/h (0 Bft) 95,74 %
05.12.2021 23:28 4,6 C 2,8 C 2,2 C 97 % 1010,5 hPa 0,0 l/m 0 min 0 min 0 W/m 0,0 km/h (0 Bft) 95,74 %
05.12.2021 23:30 4,6 C 2,8 C 2,2 C 97 % 1010,6 hPa 0,0 l/m 0 min 0 min 0 W/m 0,0 km/h (0 Bft) 95,65 %
05.12.2021 23:32 4,6 C 2,8 C 2,2 C 97 % 1010,6 hPa 0,0 l/m 0 min 0 min 0 W/m 0,0 km/h (0 Bft) 95,74 %
05.12.2021 23:34 4,6 C 2,8 C 2,2 C 97 % 1010,6 hPa 0,0 l/m 0 min 0 min 0 W/m 0,0 km/h (0 Bft) 97,87 %
05.12.2021 23:36 4,6 C 2,8 C 2,2 C 97 % 1010,7 hPa 0,0 l/m 0 min 0 min 0 W/m 0,0 km/h (0 Bft) 97,87 %
05.12.2021 23:38 4,5 C 2,8 C 2,2 C 97 % 1010,7 hPa 0,0 l/m 0 min 0 min 0 W/m 0,0 km/h (0 Bft) 97,87 %
05.12.2021 23:40 4,5 C 2,8 C 2,2 C 97 % 1010,7 hPa 0,0 l/m 0 min 0 min 0 W/m 0,0 km/h (0 Bft) 97,83 %
05.12.2021 23:42 4,5 C 2,8 C 2,2 C 97 % 1010,7 hPa 0,0 l/m 0 min 0 min 0 W/m 0,0 km/h (0 Bft) 97,87 %
05.12.2021 23:44 4,5 C 2,8 C 2,2 C 97 % 1010,7 hPa 0,0 l/m 0 min 0 min 0 W/m 0,0 km/h (0 Bft) 97,87 %
05.12.2021 23:46 4,5 C 2,8 C 2,2 C 97 % 1010,7 hPa 0,0 l/m 0 min 0 min 0 W/m 0,0 km/h (0 Bft) 97,87 %
05.12.2021 23:48 4,4 C 2,8 C 2,2 C 97 % 1010,7 hPa 0,0 l/m 0 min 0 min 0 W/m 0,0 km/h (0 Bft) 100,00 %
05.12.2021 23:50 4,4 C 2,8 C 1,7 C 97 % 1010,8 hPa 0,0 l/m 0 min 0 min 0 W/m 0,0 km/h (0 Bft) 100,00 %
05.12.2021 23:52 4,4 C 2,8 C 2,2 C 97 % 1010,9 hPa 0,0 l/m 0 min 0 min 0 W/m 0,0 km/h (0 Bft) 95,65 %
05.12.2021 23:54 4,4 C 2,8 C 2,2 C 97 % 1010,9 hPa 0,0 l/m 0 min 0 min 0 W/m 0,0 km/h (0 Bft) 100,00 %
05.12.2021 23:56 4,4 C 2,8 C 1,7 C 97 % 1010,9 hPa 0,0 l/m 0 min 0 min 0 W/m 0,0 km/h (0 Bft) 100,00 %
05.12.2021 23:58 4,4 C 2,8 C 1,7 C 97 % 1010,9 hPa 0,0 l/m 0 min 0 min 0 W/m 0,0 km/h (0 Bft) 100,00 %
_ Min-Zeit 06:34 06:08 04:56 13:52 01:16 - - - - 15:44 07:42
Minimum _ 3,1 C 1,7 C 0,6 C 88 % 999,2 hPa - - - - 0,0 km/h (0 Bft) 57,45 %
_ Max-Zeit 13:32 13:22 13:24 23:02 23:52 09:24 12:07 12:07 13:22 00:02 00:00
Maximum _ 6,7 C 11,1 C 3,9 C 97 % 1010,9 hPa 0,2 l/m 3 min 3 min 352 W/m 29,0 km/h
S (5 Bft)
100,00 %
Durchschnitt _ 4,7 C 3,5 C 1,9 C 93 % 1003,1 hPa #1,2 l/m #1:20 h #3:29 h 66 W/m 8,1 km/h (2 Bft) 97,34 %
© 2021 W. Hausmann